Time,TemperatureF,DewpointF,PressureIn,WindDirection,WindDirectionDegrees,WindSpeedMPH,WindSpeedGustMPH,Humidity,HourlyPrecipIn,Conditions,Clouds,dailyrainin,SoftwareType,DateUTC
2013-04-25 00:00:00,39.4,33.7,29.87,NNE,22,8.1,8.1,80,0.00,RA,,0.00,WeatherDisplay:10.37,2013-04-25 04:00:00,
2013-04-25 00:01:00,39.4,33.7,29.87,NNW,338,3.5,3.5,80,0.00,RA,,0.00,WeatherDisplay:10.37,2013-04-25 04:01:00,
2013-04-25 00:06:00,39.4,33.7,29.87,East,90,7.6,7.6,80,0.00,RA,,0.00,WeatherDisplay:10.37,2013-04-25 04:06:00,
2013-04-25 00:11:00,39.4,33.4,29.87,NNE,22,5.6,5.6,79,0.00,CLR,,0.00,WeatherDisplay:10.37,2013-04-25 04:11:00,
2013-04-25 00:16:00,39.4,33.1,29.87,NNW,338,3.8,3.8,78,0.00,CLR,,0.00,WeatherDisplay:10.37,2013-04-25 04:16:00,
2013-04-25 00:17:00,39.4,33.1,29.87,North,0,4.6,4.6,78,0.00,CLR,,0.00,WeatherDisplay:10.37,2013-04-25 04:17:00,
2013-04-25 00:21:00,39.2,32.6,29.87,NNW,338,5.8,5.8,77,0.00,CLR,,0.00,WeatherDisplay:10.37,2013-04-25 04:21:00,
2013-04-25 00:22:00,39.2,32.6,29.87,East,90,5.8,5.8,77,0.00,CLR,,0.00,WeatherDisplay:10.37,2013-04-25 04:22:00,
2013-04-25 00:23:00,39.2,32.9,29.87,NNW,338,2.4,2.4,78,0.00,CLR,,0.00,WeatherDisplay:10.37,2013-04-25 04:23:00,
2013-04-25 00:26:00,39.2,32.9,29.90,West,270,3.5,3.5,78,0.00,CLR,,0.00,WeatherDisplay:10.37,2013-04-25 04:26:00,
2013-04-25 00:27:00,39.2,32.9,29.90,West,270,3.5,3.5,78,0.00,CLR,,0.00,WeatherDisplay:10.37,2013-04-25 04:27:00,
2013-04-25 00:28:00,39.2,33.2,29.90,NW,315,3.5,3.6,79,0.00,CLR,,0.00,WeatherDisplay:10.37,2013-04-25 04:28:00,
2013-04-25 00:31:00,39.0,34.0,29.90,North,0,3.5,4.3,82,0.00,CLR,,0.00,WeatherDisplay:10.37,2013-04-25 04:31:00,
2013-04-25 00:32:00,39.0,34.0,29.90,WNW,292,6.4,6.4,82,0.00,CLR,,0.00,WeatherDisplay:10.37,2013-04-25 04:32:00,
2013-04-25 00:33:00,39.0,34.3,29.90,West,270,8.7,8.7,83,0.00,CLR,,0.00,WeatherDisplay:10.37,2013-04-25 04:33:00,
2013-04-25 00:37:00,38.7,34.2,29.90,West,270,5.8,5.8,84,0.00,CLR,,0.00,WeatherDisplay:10.37,2013-04-25 04:37:00,
2013-04-25 00:38:00,38.7,34.2,29.90,NE,45,6.9,6.9,84,0.00,CLR,,0.00,WeatherDisplay:10.37,2013-04-25 04:38:00,
2013-04-25 00:42:00,38.7,34.2,29.90,West,270,2.3,2.3,84,0.00,CLR,,0.00,WeatherDisplay:10.37,2013-04-25 04:42:00,
2013-04-25 00:44:00,38.7,34.2,29.90,NW,315,8.1,8.1,84,0.00,CLR,,0.00,WeatherDisplay:10.37,2013-04-25 04:44:00,
2013-04-25 00:47:00,38.5,34.7,29.90,ESE,112,9.2,9.2,86,0.00,CLR,,0.00,WeatherDisplay:10.37,2013-04-25 04:47:00,
2013-04-25 00:48:00,38.5,34.7,29.90,ESE,112,9.2,9.2,86,0.00,CLR,,0.00,WeatherDisplay:10.37,2013-04-25 04:48:00,
2013-04-25 00:49:00,38.5,34.7,29.90,ENE,68,6.9,6.9,86,0.00,CLR,,0.00,WeatherDisplay:10.37,2013-04-25 04:49:00,
2013-04-25 00:52:00,38.3,34.2,29.90,NE,45,8.1,8.1,85,0.00,CLR,,0.00,WeatherDisplay:10.37,2013-04-25 04:52:00,
2013-04-25 00:53:00,38.3,34.2,29.90,NE,45,4.6,5.9,85,0.00,CLR,,0.00,WeatherDisplay:10.37,2013-04-25 04:53:00,
2013-04-25 00:54:00,38.3,34.2,29.90,NNE,22,2.6,3.6,85,0.00,CLR,,0.00,WeatherDisplay:10.37,2013-04-25 04:54:00,
2013-04-25 00:57:00,38.3,34.2,29.90,ESE,112,9.2,9.2,85,0.00,CLR,,0.00,WeatherDisplay:10.37,2013-04-25 04:57:00,
2013-04-25 00:58:00,38.3,34.2,29.90,NNW,338,3.5,3.5,85,0.00,CLR,,0.00,WeatherDisplay:10.37,2013-04-25 04:58:00,
2013-04-25 00:59:00,38.3,34.2,29.90,WSW,248,4.0,4.0,85,0.00,CLR,,0.00,WeatherDisplay:10.37,2013-04-25 04:59:00,
2013-04-25 01:02:00,38.3,34.2,29.90,NNE,22,5.8,5.8,85,0.00,CLR,,0.00,WeatherDisplay:10.37,2013-04-25 05:02:00,
2013-04-25 01:03:00,38.3,34.2,29.90,WSW,248,5.8,5.8,85,0.00,CLR,,0.00,WeatherDisplay:10.37,2013-04-25 05:03:00,
2013-04-25 01:05:00,38.3,34.2,29.90,West,270,5.8,5.8,85,0.00,CLR,,0.00,WeatherDisplay:10.37,2013-04-25 05:05:00,
2013-04-25 01:08:00,38.3,34.2,29.90,WNW,292,3.6,3.6,85,0.00,CLR,,0.00,WeatherDisplay:10.37,2013-04-25 05:08:00,
2013-04-25 01:10:00,38.3,34.2,29.93,South,180,3.5,3.5,85,0.00,CLR,,0.00,WeatherDisplay:10.37,2013-04-25 05:10:00,
2013-04-25 01:13:00,38.3,34.2,29.93,East,90,2.3,2.3,85,0.00,CLR,,0.00,WeatherDisplay:10.37,2013-04-25 05:13:00,
2013-04-25 01:15:00,38.1,34.0,29.93,NW,315,4.6,4.6,85,0.00,CLR,,0.00,WeatherDisplay:10.37,2013-04-25 05:15:00,
2013-04-25 01:18:00,38.3,33.9,29.93,NNE,22,3.5,3.5,84,0.00,CLR,,0.00,WeatherDisplay:10.37,2013-04-25 05:18:00,
2013-04-25 01:19:00,38.3,33.6,29.93,ESE,112,5.8,5.8,83,0.00,CLR,,0.00,WeatherDisplay:10.37,2013-04-25 05:19:00,
2013-04-25 01:20:00,38.1,33.4,29.93,NW,315,5.8,5.8,83,0.00,CLR,,0.00,WeatherDisplay:10.37,2013-04-25 05:20:00,
2013-04-25 01:23:00,38.1,33.1,29.93,NNE,22,3.5,3.5,82,0.00,CLR,,0.00,WeatherDisplay:10.37,2013-04-25 05:23:00,
2013-04-25 01:24:00,38.1,33.1,29.93,West,270,2.3,3.6,82,0.00,CLR,,0.00,WeatherDisplay:10.37,2013-04-25 05:24:00,
2013-04-25 01:26:00,38.1,32.8,29.93,NW,315,6.9,6.9,81,0.00,CLR,,0.00,WeatherDisplay:10.37,2013-04-25 05:26:00,
2013-04-25 01:28:00,38.1,32.2,29.93,North,0,4.6,4.6,79,0.00,CLR,,0.00,WeatherDisplay:10.37,2013-04-25 05:28:00,
2013-04-25 01:29:00,38.1,32.2,29.93,NNW,338,10.4,10.4,79,0.00,CLR,,0.00,WeatherDisplay:10.37,2013-04-25 05:29:00,
2013-04-25 01:31:00,38.3,32.4,29.93,NW,315,8.1,8.1,79,0.00,CLR,,0.00,WeatherDisplay:10.37,2013-04-25 05:31:00,
2013-04-25 01:33:00,38.3,32.4,29.93,WSW,248,4.6,4.6,79,0.00,CLR,,0.00,WeatherDisplay:10.37,2013-04-25 05:33:00,
2013-04-25 01:34:00,38.3,32.4,29.93,North,0,4.9,4.9,79,0.00,CLR,,0.00,WeatherDisplay:10.37,2013-04-25 05:34:00,
2013-04-25 01:36:00,38.3,32.0,29.93,North,0,4.6,4.6,78,0.00,CLR,,0.00,WeatherDisplay:10.37,2013-04-25 05:36:00,
2013-04-25 01:39:00,38.3,31.7,29.93,ENE,68,6.9,6.9,77,0.00,CLR,,0.00,WeatherDisplay:10.37,2013-04-25 05:39:00,
2013-04-25 01:40:00,38.3,31.7,29.93,NNE,22,7.4,7.4,77,0.00,CLR,,0.00,WeatherDisplay:10.37,2013-04-25 05:40:00,
2013-04-25 01:41:00,38.1,31.2,29.93,NNE,22,9.2,9.2,76,0.00,CLR,,0.00,WeatherDisplay:10.37,2013-04-25 05:41:00,
2013-04-25 01:44:00,38.1,30.9,29.93,WNW,292,3.5,0.0,75,0.00,CLR,,0.00,WeatherDisplay:10.37,2013-04-25 05:44:00,
2013-04-25 01:45:00,38.1,31.2,29.93,West,270,1.4,1.4,76,0.00,CLR,,0.00,WeatherDisplay:10.37,2013-04-25 05:45:00,
2013-04-25 01:46:00,38.1,31.2,29.93,NE,45,2.3,2.3,76,0.00,CLR,,0.00,WeatherDisplay:10.37,2013-04-25 05:46:00,
2013-04-25 01:49:00,38.1,31.2,29.93,NNE,22,5.8,5.8,76,0.00,CLR,,0.00,WeatherDisplay:10.37,2013-04-25 05:49:00,
2013-04-25 01:50:00,38.1,31.2,29.93,North,0,6.9,6.9,76,0.00,CLR,,0.00,WeatherDisplay:10.37,2013-04-25 05:50:00,
2013-04-25 01:51:00,38.1,31.2,29.93,WNW,292,3.5,3.5,76,0.00,CLR,,0.00,WeatherDisplay:10.37,2013-04-25 05:51:00,
2013-04-25 01:54:00,37.9,31.0,29.93,West,270,5.8,5.8,76,0.00,CLR,,0.00,WeatherDisplay:10.37,2013-04-25 05:54:00,
2013-04-25 01:55:00,37.9,31.0,29.93,NW,315,3.5,3.5,76,0.00,CLR,,0.00,WeatherDisplay:10.37,2013-04-25 05:55:00,
2013-04-25 01:56:00,37.9,31.0,29.93,NNW,338,5.4,5.4,76,0.00,CLR,,0.00,WeatherDisplay:10.37,2013-04-25 05:56:00,
2013-04-25 02:00:00,37.8,31.2,29.93,North,0,4.6,4.6,77,0.00,CLR,,0.00,WeatherDisplay:10.37,2013-04-25 06:00:00,
2013-04-25 02:01:00,37.8,31.2,29.93,NW,315,4.6,4.6,77,0.00,CLR,,0.00,WeatherDisplay:10.37,2013-04-25 06:01:00,
2013-04-25 02:05:00,37.6,31.0,29.93,NE,45,5.8,5.8,77,0.00,CLR,,0.00,WeatherDisplay:10.37,2013-04-25 06:05:00,
2013-04-25 02:06:00,37.6,31.0,29.93,WNW,292,9.2,9.2,77,0.00,CLR,,0.00,WeatherDisplay:10.37,2013-04-25 06:06:00,
2013-04-25 02:07:00,37.6,31.0,29.93,NNW,338,9.2,9.2,77,0.00,CLR,,0.00,WeatherDisplay:10.37,2013-04-25 06:07:00,
2013-04-25 02:10:00,37.4,30.8,29.93,WNW,292,2.3,2.3,77,0.00,CLR,,0.00,WeatherDisplay:10.37,2013-04-25 06:10:00,
2013-04-25 02:11:00,37.4,30.8,29.93,NE,45,2.3,2.3,77,0.00,CLR,,0.00,WeatherDisplay:10.37,2013-04-25 06:11:00,
2013-04-25 02:12:00,37.2,30.7,29.93,WSW,248,5.8,5.8,77,0.00,CLR,,0.00,WeatherDisplay:10.37,2013-04-25 06:12:00,
2013-04-25 02:15:00,37.2,31.0,29.93,ENE,68,4.6,4.6,78,0.00,CLR,,0.00,WeatherDisplay:10.37,2013-04-25 06:15:00,
2013-04-25 02:16:00,37.0,30.8,29.93,NNW,338,4.6,4.6,78,0.00,CLR,,0.00,WeatherDisplay:10.37,2013-04-25 06:16:00,
2013-04-25 02:17:00,37.0,30.8,29.93,WNW,292,4.6,4.6,78,0.00,CLR,,0.00,WeatherDisplay:10.37,2013-04-25 06:17:00,
2013-04-25 02:20:00,37.0,30.8,29.93,WSW,248,6.2,6.2,78,0.00,CLR,,0.00,WeatherDisplay:10.37,2013-04-25 06:20:00,
2013-04-25 02:21:00,37.0,30.8,29.93,WNW,292,5.8,5.8,78,0.00,CLR,,0.00,WeatherDisplay:10.37,2013-04-25 06:21:00,
2013-04-25 02:22:00,36.9,30.6,29.93,North,0,6.4,6.4,78,0.00,CLR,,0.00,WeatherDisplay:10.37,2013-04-25 06:22:00,
2013-04-25 02:25:00,36.9,31.0,29.93,NNW,338,4.6,4.6,79,0.00,CLR,,0.00,WeatherDisplay:10.37,2013-04-25 06:25:00,
2013-04-25 02:26:00,36.9,31.0,29.93,NNE,22,5.8,5.8,79,0.00,CLR,,0.00,WeatherDisplay:10.37,2013-04-25 06:26:00,
2013-04-25 02:28:00,36.9,31.0,29.93,SW,225,3.5,3.5,79,0.00,CLR,,0.00,WeatherDisplay:10.37,2013-04-25 06:28:00,
2013-04-25 02:30:00,36.9,31.0,29.93,SW,225,5.8,5.8,79,0.00,CLR,,0.00,WeatherDisplay:10.37,2013-04-25 06:30:00,
2013-04-25 02:31:00,36.9,31.0,29.93,NNE,22,4.6,4.6,79,0.00,CLR,,0.00,WeatherDisplay:10.37,2013-04-25 06:31:00,
2013-04-25 02:33:00,36.7,30.8,29.93,NNE,22,4.6,4.6,79,0.00,CLR,,0.00,WeatherDisplay:10.37,2013-04-25 06:33:00,
2013-04-25 02:36:00,36.7,30.8,29.93,ENE,68,3.5,3.5,79,0.00,CLR,,0.00,WeatherDisplay:10.37,2013-04-25 06:36:00,
2013-04-25 02:39:00,36.7,30.8,29.93,NNW,338,4.6,4.6,79,0.00,CLR,,0.00,WeatherDisplay:10.37,2013-04-25 06:39:00,
2013-04-25 02:41:00,36.7,30.8,29.93,NNE,22,0.0,0.9,79,0.00,CLR,,0.00,WeatherDisplay:10.37,2013-04-25 06:41:00,
2013-04-25 02:44:00,36.7,31.1,29.93,South,180,1.4,1.4,80,0.00,CLR,,0.00,WeatherDisplay:10.37,2013-04-25 06:44:00,
2013-04-25 02:46:00,36.7,31.1,29.93,ENE,68,4.6,4.6,80,0.00,CLR,,0.00,WeatherDisplay:10.37,2013-04-25 06:46:00,
2013-04-25 02:47:00,36.9,31.3,29.93,ENE,68,3.5,3.5,80,0.00,CLR,,0.00,WeatherDisplay:10.37,2013-04-25 06:47:00,
2013-04-25 02:49:00,36.9,31.6,29.93,North,0,3.5,3.5,81,0.00,CLR,,0.00,WeatherDisplay:10.37,2013-04-25 06:49:00,
2013-04-25 02:51:00,36.9,31.6,29.93,ENE,68,2.4,0.0,81,0.00,CLR,,0.00,WeatherDisplay:10.37,2013-04-25 06:51:00,
2013-04-25 02:52:00,36.9,31.6,29.93,ENE,68,3.5,0.0,81,0.00,CLR,,0.00,WeatherDisplay:10.37,2013-04-25 06:52:00,
2013-04-25 02:54:00,36.9,31.6,29.93,NNE,22,1.1,1.1,81,0.00,CLR,,0.00,WeatherDisplay:10.37,2013-04-25 06:54:00,
2013-04-25 02:56:00,36.9,31.6,29.93,NW,315,3.8,3.8,81,0.00,CLR,,0.00,WeatherDisplay:10.37,2013-04-25 06:56:00,
2013-04-25 02:57:00,36.9,31.6,29.93,WNW,292,7.1,7.1,81,0.00,CLR,,0.00,WeatherDisplay:10.37,2013-04-25 06:57:00,
2013-04-25 03:00:00,36.9,31.3,29.93,NNE,22,2.3,2.3,80,0.00,CLR,,0.00,WeatherDisplay:10.37,2013-04-25 07:00:00,
2013-04-25 03:02:00,36.9,31.3,29.93,South,180,1.1,1.4,80,0.00,CLR,,0.00,WeatherDisplay:10.37,2013-04-25 07:02:00,
2013-04-25 03:05:00,36.9,31.3,29.93,North,0,2.3,2.3,80,0.00,CLR,,0.00,WeatherDisplay:10.37,2013-04-25 07:05:00,
2013-04-25 03:07:00,36.9,31.3,29.93,ENE,68,3.5,3.5,80,0.00,CLR,,0.00,WeatherDisplay:10.37,2013-04-25 07:07:00,
2013-04-25 03:08:00,36.9,31.3,29.93,ESE,112,7.4,7.4,80,0.00,CLR,,0.00,WeatherDisplay:10.37,2013-04-25 07:08:00,
2013-04-25 03:09:00,36.9,31.3,29.93,SSW,202,8.1,8.1,80,0.00,CLR,,0.00,WeatherDisplay:10.37,2013-04-25 07:09:00,
2013-04-25 03:10:00,36.9,31.3,29.93,North,0,5.8,5.8,80,0.00,CLR,,0.00,WeatherDisplay:10.37,2013-04-25 07:10:00,
2013-04-25 03:12:00,36.9,31.3,29.93,NNE,22,5.8,5.8,80,0.00,CLR,,0.00,WeatherDisplay:10.37,2013-04-25 07:12:00,
2013-04-25 03:13:00,36.9,31.0,29.93,ESE,112,5.8,5.8,79,0.00,CLR,,0.00,WeatherDisplay:10.37,2013-04-25 07:13:00,
2013-04-25 03:15:00,36.9,31.0,29.93,ESE,112,2.3,2.3,79,0.00,CLR,,0.00,WeatherDisplay:10.37,2013-04-25 07:15:00,
2013-04-25 03:17:00,36.9,31.0,29.93,WSW,248,2.3,2.3,79,0.00,CLR,,0.00,WeatherDisplay:10.37,2013-04-25 07:17:00,
2013-04-25 03:18:00,36.9,31.0,29.93,SSE,158,0.0,0.0,79,0.00,CLR,,0.00,WeatherDisplay:10.37,2013-04-25 07:18:00,
2013-04-25 03:20:00,36.9,31.0,29.93,NE,45,4.7,4.7,79,0.00,CLR,,0.00,WeatherDisplay:10.37,2013-04-25 07:20:00,
2013-04-25 03:22:00,37.0,31.1,29.93,ESE,112,2.3,2.3,79,0.00,CLR,,0.00,WeatherDisplay:10.37,2013-04-25 07:22:00,
2013-04-25 03:23:00,37.0,31.1,29.93,ESE,112,0.0,1.1,79,0.00,CLR,,0.00,WeatherDisplay:10.37,2013-04-25 07:23:00,
2013-04-25 03:25:00,37.0,31.1,29.93,West,270,4.3,0.0,79,0.00,CLR,,0.00,WeatherDisplay:10.37,2013-04-25 07:25:00,
2013-04-25 03:27:00,37.0,31.1,29.93,ENE,68,4.6,0.0,79,0.00,CLR,,0.00,WeatherDisplay:10.37,2013-04-25 07:27:00,
2013-04-25 03:28:00,37.0,31.1,29.93,East,90,0.0,0.0,79,0.00,CLR,,0.00,WeatherDisplay:10.37,2013-04-25 07:28:00,
2013-04-25 03:30:00,37.0,31.1,29.93,NW,315,2.3,2.3,79,0.00,CLR,,0.00,WeatherDisplay:10.37,2013-04-25 07:30:00,
2013-04-25 03:32:00,37.0,31.1,29.93,NE,45,0.0,2.0,79,0.00,CLR,,0.00,WeatherDisplay:10.37,2013-04-25 07:32:00,
2013-04-25 03:33:00,37.0,31.1,29.93,ENE,68,3.5,3.5,79,0.00,CLR,,0.00,WeatherDisplay:10.37,2013-04-25 07:33:00,
2013-04-25 03:35:00,37.2,31.0,29.93,ENE,68,5.8,5.8,78,0.00,CLR,,0.00,WeatherDisplay:10.37,2013-04-25 07:35:00,
2013-04-25 03:36:00,37.2,31.0,29.93,ENE,68,5.8,5.8,78,0.00,CLR,,0.00,WeatherDisplay:10.37,2013-04-25 07:36:00,
2013-04-25 03:37:00,37.4,31.2,29.93,NNE,22,5.8,5.8,78,0.00,CLR,,0.00,WeatherDisplay:10.37,2013-04-25 07:37:00,
2013-04-25 03:38:00,37.4,31.2,29.93,East,90,5.8,5.8,78,0.00,CLR,,0.00,WeatherDisplay:10.37,2013-04-25 07:38:00,
2013-04-25 03:41:00,37.4,30.8,29.95,East,90,6.2,6.2,77,0.00,CLR,,0.00,WeatherDisplay:10.37,2013-04-25 07:41:00,
2013-04-25 03:42:00,37.6,31.0,29.95,NNE,22,5.8,5.8,77,0.00,CLR,,0.00,WeatherDisplay:10.37,2013-04-25 07:42:00,
2013-04-25 03:43:00,37.6,31.0,29.95,WNW,292,3.5,3.5,77,0.00,CLR,,0.00,WeatherDisplay:10.37,2013-04-25 07:43:00,
2013-04-25 03:44:00,37.6,31.0,29.95,NE,45,5.8,5.8,77,0.00,CLR,,0.00,WeatherDisplay:10.37,2013-04-25 07:44:00,
2013-04-25 03:46:00,37.6,30.7,29.95,East,90,5.8,5.8,76,0.00,CLR,,0.00,WeatherDisplay:10.37,2013-04-25 07:46:00,
2013-04-25 03:47:00,37.6,30.7,29.95,NNW,338,6.9,6.9,76,0.00,CLR,,0.00,WeatherDisplay:10.37,2013-04-25 07:47:00,
2013-04-25 03:48:00,37.6,30.7,29.95,NNW,338,2.9,3.3,76,0.00,CLR,,0.00,WeatherDisplay:10.37,2013-04-25 07:48:00,
2013-04-25 03:49:00,37.6,30.7,29.95,East,90,2.3,2.3,76,0.00,CLR,,0.00,WeatherDisplay:10.37,2013-04-25 07:49:00,
2013-04-25 03:52:00,37.6,30.7,29.95,WNW,292,2.3,2.3,76,0.00,CLR,,0.00,WeatherDisplay:10.37,2013-04-25 07:52:00,
2013-04-25 03:53:00,37.6,30.7,29.95,NNW,338,2.3,2.3,76,0.00,CLR,,0.00,WeatherDisplay:10.37,2013-04-25 07:53:00,
2013-04-25 03:54:00,37.6,30.7,29.95,NNE,22,3.6,3.6,76,0.00,CLR,,0.00,WeatherDisplay:10.37,2013-04-25 07:54:00,
2013-04-25 03:57:00,37.6,30.7,29.95,NE,45,3.5,3.5,76,0.00,CLR,,0.00,WeatherDisplay:10.37,2013-04-25 07:57:00,
2013-04-25 03:58:00,37.6,30.7,29.95,NE,45,2.3,3.1,76,0.00,CLR,,0.00,WeatherDisplay:10.37,2013-04-25 07:58:00,
2013-04-25 03:59:00,37.6,30.7,29.95,North,0,4.9,4.9,76,0.00,CLR,,0.00,WeatherDisplay:10.37,2013-04-25 07:59:00,
2013-04-25 04:02:00,37.8,30.9,29.95,ENE,68,3.5,3.5,76,0.00,CLR,,0.00,WeatherDisplay:10.37,2013-04-25 08:02:00,
2013-04-25 04:03:00,37.8,30.9,29.95,ENE,68,3.5,3.5,76,0.00,CLR,,0.00,WeatherDisplay:10.37,2013-04-25 08:03:00,
2013-04-25 04:04:00,37.8,30.9,29.95,ESE,112,4.6,4.6,76,0.00,CLR,,0.00,WeatherDisplay:10.37,2013-04-25 08:04:00,
2013-04-25 04:05:00,37.8,30.9,29.95,East,90,4.6,4.6,76,0.00,CLR,,0.00,WeatherDisplay:10.37,2013-04-25 08:05:00,
2013-04-25 04:08:00,37.6,30.7,29.95,WNW,292,2.3,0.0,76,0.00,CLR,,0.00,WeatherDisplay:10.37,2013-04-25 08:08:00,
2013-04-25 04:09:00,37.6,30.7,29.99,NNE,22,1.1,1.6,76,0.00,CLR,,0.00,WeatherDisplay:10.37,2013-04-25 08:09:00,
2013-04-25 04:10:00,37.6,30.7,29.99,NE,45,3.5,0.0,76,0.00,CLR,,0.00,WeatherDisplay:10.37,2013-04-25 08:10:00,
2013-04-25 04:13:00,37.4,30.2,29.99,WNW,292,4.0,4.0,75,0.00,CLR,,0.00,WeatherDisplay:10.37,2013-04-25 08:13:00,
2013-04-25 04:14:00,37.4,30.2,29.99,ENE,68,1.1,2.9,75,0.00,CLR,,0.00,WeatherDisplay:10.37,2013-04-25 08:14:00,
2013-04-25 04:15:00,37.2,30.3,29.99,East,90,2.3,2.3,76,0.00,CLR,,0.00,WeatherDisplay:10.37,2013-04-25 08:15:00,
2013-04-25 04:18:00,37.0,30.2,29.99,North,0,0.0,0.0,76,0.00,CLR,,0.00,WeatherDisplay:10.37,2013-04-25 08:18:00,
2013-04-25 04:19:00,37.0,30.2,29.99,East,90,2.6,0.0,76,0.00,CLR,,0.00,WeatherDisplay:10.37,2013-04-25 08:19:00,
2013-04-25 04:20:00,37.0,30.5,29.99,ENE,68,3.1,0.0,77,0.00,CLR,,0.00,WeatherDisplay:10.37,2013-04-25 08:20:00,
2013-04-25 04:23:00,36.9,30.3,29.99,North,0,2.3,2.3,77,0.00,CLR,,0.00,WeatherDisplay:10.37,2013-04-25 08:23:00,
2013-04-25 04:24:00,36.9,30.3,29.99,North,0,1.1,1.4,77,0.00,CLR,,0.00,WeatherDisplay:10.37,2013-04-25 08:24:00,
2013-04-25 04:26:00,36.9,30.3,29.99,NNE,22,0.0,0.0,77,0.00,CLR,,0.00,WeatherDisplay:10.37,2013-04-25 08:26:00,
2013-04-25 04:28:00,36.7,30.1,29.99,ESE,112,0.0,0.0,77,0.00,CLR,,0.00,WeatherDisplay:10.37,2013-04-25 08:28:00,
2013-04-25 04:29:00,36.7,30.1,29.99,North,0,1.1,0.0,77,0.00,CLR,,0.00,WeatherDisplay:10.37,2013-04-25 08:29:00,
2013-04-25 04:30:00,36.7,30.1,29.99,ESE,112,1.1,0.0,77,0.00,CLR,,0.00,WeatherDisplay:10.37,2013-04-25 08:30:00,
2013-04-25 04:32:00,36.5,30.0,29.99,NNW,338,6.9,6.9,77,0.00,CLR,,0.00,WeatherDisplay:10.37,2013-04-25 08:32:00,
2013-04-25 04:34:00,36.5,30.0,29.99,ESE,112,1.1,0.0,77,0.00,CLR,,0.00,WeatherDisplay:10.37,2013-04-25 08:34:00,
2013-04-25 04:35:00,36.5,30.0,29.99,ESE,112,0.0,0.0,77,0.00,CLR,,0.00,WeatherDisplay:10.37,2013-04-25 08:35:00,
2013-04-25 04:37:00,36.3,30.1,29.99,ESE,112,3.5,3.5,78,0.00,CLR,,0.00,WeatherDisplay:10.37,2013-04-25 08:37:00,
2013-04-25 04:39:00,36.3,30.1,29.99,SSW,202,4.0,0.0,78,0.00,CLR,,0.00,WeatherDisplay:10.37,2013-04-25 08:39:00,
2013-04-25 04:40:00,36.3,30.1,29.99,NNW,338,4.6,4.6,78,0.00,CLR,,0.00,WeatherDisplay:10.37,2013-04-25 08:40:00,
2013-04-25 04:42:00,36.3,30.1,29.99,NNE,22,2.0,0.0,78,0.00,CLR,,0.00,WeatherDisplay:10.37,2013-04-25 08:42:00,
2013-04-25 04:44:00,36.3,30.1,29.99,WNW,292,0.0,0.0,78,0.00,CLR,,0.00,WeatherDisplay:10.37,2013-04-25 08:44:00,
2013-04-25 04:45:00,36.3,30.1,29.99,WSW,248,3.5,3.5,78,0.00,CLR,,0.00,WeatherDisplay:10.37,2013-04-25 08:45:00,
2013-04-25 04:47:00,36.3,30.4,29.99,ESE,112,3.5,0.0,79,0.00,CLR,,0.00,WeatherDisplay:10.37,2013-04-25 08:47:00,
2013-04-25 04:49:00,36.1,30.3,29.99,NNE,22,1.1,0.0,79,0.00,CLR,,0.00,WeatherDisplay:10.37,2013-04-25 08:49:00,
2013-04-25 04:50:00,36.1,30.3,29.99,WNW,292,1.1,0.0,79,0.00,CLR,,0.00,WeatherDisplay:10.37,2013-04-25 08:50:00,
2013-04-25 04:52:00,36.1,30.3,29.99,NNW,338,1.1,1.1,79,0.00,CLR,,0.00,WeatherDisplay:10.37,2013-04-25 08:52:00,
2013-04-25 04:55:00,36.0,30.1,29.99,ENE,68,2.3,2.3,79,0.00,CLR,,0.00,WeatherDisplay:10.37,2013-04-25 08:55:00,
2013-04-25 04:57:00,36.0,30.1,29.99,NNW,338,0.0,0.0,79,0.00,CLR,,0.00,WeatherDisplay:10.37,2013-04-25 08:57:00,
2013-04-25 05:00:00,36.0,30.4,29.99,SW,225,3.5,3.5,80,0.00,CLR,,0.00,WeatherDisplay:10.37,2013-04-25 09:00:00,
2013-04-25 05:01:00,36.1,30.9,29.99,North,0,6.9,6.9,81,0.00,CLR,,0.00,WeatherDisplay:10.37,2013-04-25 09:01:00,
2013-04-25 05:02:00,36.1,30.9,29.99,NE,45,5.8,5.8,81,0.00,CLR,,0.00,WeatherDisplay:10.37,2013-04-25 09:02:00,
2013-04-25 05:05:00,36.1,31.2,29.99,WNW,292,6.9,6.9,82,0.00,CLR,,0.00,WeatherDisplay:10.37,2013-04-25 09:05:00,
2013-04-25 05:06:00,36.1,31.2,29.99,NNW,338,6.9,6.9,82,0.00,CLR,,0.00,WeatherDisplay:10.37,2013-04-25 09:06:00,
2013-04-25 05:07:00,36.1,31.2,29.99,NNE,22,2.3,2.3,82,0.00,CLR,,0.00,WeatherDisplay:10.37,2013-04-25 09:07:00,
2013-04-25 05:10:00,36.0,31.0,29.99,NNW,338,5.8,0.0,82,0.00,CLR,,0.00,WeatherDisplay:10.37,2013-04-25 09:10:00,
2013-04-25 05:11:00,36.0,31.0,29.99,North,0,5.8,5.8,82,0.00,CLR,,0.00,WeatherDisplay:10.37,2013-04-25 09:11:00,
2013-04-25 05:12:00,36.0,31.0,29.99,WSW,248,2.3,2.3,82,0.00,CLR,,0.00,WeatherDisplay:10.37,2013-04-25 09:12:00,
2013-04-25 05:15:00,35.8,30.8,29.99,WSW,248,0.0,0.0,82,0.00,CLR,,0.00,WeatherDisplay:10.37,2013-04-25 09:15:00,
2013-04-25 05:17:00,35.8,30.8,29.99,WNW,292,0.0,0.0,82,0.00,CLR,,0.00,WeatherDisplay:10.37,2013-04-25 09:17:00,
2013-04-25 05:18:00,35.8,31.1,29.99,North,0,1.1,1.1,83,0.00,CLR,,0.00,WeatherDisplay:10.37,2013-04-25 09:18:00,
2013-04-25 05:20:00,35.8,31.1,29.99,East,90,3.5,3.5,83,0.00,CLR,,0.00,WeatherDisplay:10.37,2013-04-25 09:20:00,
2013-04-25 05:21:00,35.8,31.1,29.99,North,0,0.0,0.9,83,0.00,CLR,,0.00,WeatherDisplay:10.37,2013-04-25 09:21:00,
2013-04-25 05:22:00,35.8,31.1,29.99,NE,45,0.0,0.0,83,0.00,CLR,,0.00,WeatherDisplay:10.37,2013-04-25 09:22:00,
2013-04-25 05:23:00,35.6,30.9,29.99,SSW,202,0.0,0.0,83,0.00,CLR,,0.00,WeatherDisplay:10.37,2013-04-25 09:23:00,
2013-04-25 05:25:00,35.6,30.9,29.99,ENE,68,0.0,0.0,83,0.00,CLR,,0.00,WeatherDisplay:10.37,2013-04-25 09:25:00,
2013-04-25 05:26:00,35.6,30.9,29.99,WNW,292,0.0,0.0,83,0.00,CLR,,0.00,WeatherDisplay:10.37,2013-04-25 09:26:00,
2013-04-25 05:27:00,35.4,30.8,29.99,ENE,68,0.0,0.0,83,0.00,CLR,,0.00,WeatherDisplay:10.37,2013-04-25 09:27:00,
2013-04-25 05:28:00,35.4,30.8,29.99,NNW,338,3.6,3.6,83,0.00,CLR,,0.00,WeatherDisplay:10.37,2013-04-25 09:28:00,
2013-04-25 05:30:00,35.4,30.8,29.99,WNW,292,3.5,0.0,83,0.00,CLR,,0.00,WeatherDisplay:10.37,2013-04-25 09:30:00,
2013-04-25 05:31:00,35.4,30.8,29.99,WNW,292,0.0,0.0,83,0.00,CLR,,0.00,WeatherDisplay:10.37,2013-04-25 09:31:00,
2013-04-25 05:32:00,35.4,30.8,29.99,West,270,2.9,2.9,83,0.00,CLR,,0.00,WeatherDisplay:10.37,2013-04-25 09:32:00,
2013-04-25 05:34:00,35.4,31.1,29.99,NNW,338,2.3,0.0,84,0.00,CLR,,0.00,WeatherDisplay:10.37,2013-04-25 09:34:00,
2013-04-25 05:35:00,35.4,31.4,29.99,WNW,292,1.1,0.0,85,0.00,CLR,,0.00,WeatherDisplay:10.37,2013-04-25 09:35:00,
2013-04-25 05:36:00,35.4,31.4,29.99,NE,45,1.1,1.1,85,0.00,CLR,,0.00,WeatherDisplay:10.37,2013-04-25 09:36:00,
2013-04-25 05:37:00,35.4,31.4,29.99,North,0,1.4,1.4,85,0.00,CLR,,0.00,WeatherDisplay:10.37,2013-04-25 09:37:00,
2013-04-25 05:39:00,35.4,31.6,29.99,ENE,68,3.5,3.5,86,0.00,CLR,,0.00,WeatherDisplay:10.37,2013-04-25 09:39:00,
2013-04-25 05:40:00,35.4,31.6,29.99,ENE,68,1.1,0.0,86,0.00,CLR,,0.00,WeatherDisplay:10.37,2013-04-25 09:40:00,
2013-04-25 05:41:00,35.2,31.5,29.99,WSW,248,5.6,0.0,86,0.00,CLR,,0.00,WeatherDisplay:10.37,2013-04-25 09:41:00,
2013-04-25 05:42:00,35.4,31.6,29.99,NNE,22,5.8,0.0,86,0.00,CLR,,0.00,WeatherDisplay:10.37,2013-04-25 09:42:00,
2013-04-25 05:43:00,35.4,31.6,29.99,NNE,22,5.8,0.0,86,0.00,CLR,,0.00,WeatherDisplay:10.37,2013-04-25 09:43:00,
2013-04-25 05:45:00,35.2,31.5,29.99,NNE,22,0.0,0.0,86,0.00,CLR,,0.00,WeatherDisplay:10.37,2013-04-25 09:45:00,
2013-04-25 05:46:00,35.2,31.5,29.99,NNE,22,0.0,0.0,86,0.00,CLR,,0.00,WeatherDisplay:10.37,2013-04-25 09:46:00,
2013-04-25 05:47:00,35.2,31.5,29.99,NNE,22,0.0,0.0,86,0.00,CLR,,0.00,WeatherDisplay:10.37,2013-04-25 09:47:00,
2013-04-25 05:48:00,35.2,31.5,29.99,NNE,22,0.0,0.0,86,0.00,CLR,,0.00,WeatherDisplay:10.37,2013-04-25 09:48:00,
2013-04-25 05:50:00,35.1,31.3,29.99,NE,45,0.0,0.0,86,0.00,CLR,,0.00,WeatherDisplay:10.37,2013-04-25 09:50:00,
2013-04-25 05:51:00,35.1,31.3,29.99,NE,45,0.0,0.0,86,0.00,CLR,,0.00,WeatherDisplay:10.37,2013-04-25 09:51:00,
2013-04-25 05:52:00,35.1,31.3,29.99,North,0,0.0,0.0,86,0.00,CLR,,0.00,WeatherDisplay:10.37,2013-04-25 09:52:00,
2013-04-25 05:53:00,35.1,31.3,29.99,WSW,248,0.0,0.0,86,0.00,CLR,,0.00,WeatherDisplay:10.37,2013-04-25 09:53:00,
2013-04-25 05:56:00,35.1,31.3,30.01,ENE,68,0.0,0.0,86,0.00,CLR,,0.00,WeatherDisplay:10.37,2013-04-25 09:56:00,
2013-04-25 05:57:00,35.1,31.3,30.01,West,270,0.0,0.0,86,0.00,CLR,,0.00,WeatherDisplay:10.37,2013-04-25 09:57:00,
2013-04-25 05:58:00,35.1,31.3,30.01,West,270,0.0,0.0,86,0.00,CLR,,0.00,WeatherDisplay:10.37,2013-04-25 09:58:00,
2013-04-25 06:01:00,35.2,31.8,30.01,North,0,1.1,1.1,87,0.00,CLR,,0.00,WeatherDisplay:10.37,2013-04-25 10:01:00,
2013-04-25 06:02:00,35.2,32.0,30.01,NNE,22,4.6,4.6,88,0.00,CLR,,0.00,WeatherDisplay:10.37,2013-04-25 10:02:00,
2013-04-25 06:03:00,35.2,32.0,30.01,NNW,338,4.6,4.6,88,0.00,CLR,,0.00,WeatherDisplay:10.37,2013-04-25 10:03:00,
2013-04-25 06:06:00,35.2,32.0,30.01,ENE,68,0.0,0.0,88,0.00,CLR,,0.00,WeatherDisplay:10.37,2013-04-25 10:06:00,
2013-04-25 06:08:00,35.2,32.0,30.01,WSW,248,0.0,0.0,88,0.00,CLR,,0.00,WeatherDisplay:10.37,2013-04-25 10:08:00,
2013-04-25 06:11:00,35.1,31.9,30.01,ENE,68,2.3,0.0,88,0.00,CLR,,0.00,WeatherDisplay:10.37,2013-04-25 10:11:00,
2013-04-25 06:13:00,35.2,32.0,30.01,NNW,338,1.6,0.0,88,0.00,CLR,,0.00,WeatherDisplay:10.37,2013-04-25 10:13:00,
2013-04-25 06:16:00,35.2,32.0,30.01,WNW,292,4.6,4.6,88,0.00,CLR,,0.00,WeatherDisplay:10.37,2013-04-25 10:16:00,
2013-04-25 06:17:00,35.2,32.0,30.01,ENE,68,4.6,4.6,88,0.00,CLR,,0.00,WeatherDisplay:10.37,2013-04-25 10:17:00,
2013-04-25 06:18:00,35.2,32.0,30.01,NNW,338,2.3,2.3,88,0.00,CLR,,0.00,WeatherDisplay:10.37,2013-04-25 10:18:00,
2013-04-25 06:19:00,35.2,32.0,30.01,NNW,338,2.3,2.3,88,0.00,CLR,,0.00,WeatherDisplay:10.37,2013-04-25 10:19:00,
2013-04-25 06:21:00,35.4,32.2,30.01,SSE,158,1.1,0.0,88,0.00,CLR,,0.00,WeatherDisplay:10.37,2013-04-25 10:21:00,
2013-04-25 06:22:00,35.2,32.0,30.01,South,180,1.1,0.0,88,0.00,CLR,,0.00,WeatherDisplay:10.37,2013-04-25 10:22:00,
2013-04-25 06:23:00,35.4,32.2,30.01,North,0,1.1,0.0,88,0.00,CLR,,0.00,WeatherDisplay:10.37,2013-04-25 10:23:00,
2013-04-25 06:24:00,35.2,32.0,30.01,ENE,68,1.1,1.1,88,0.00,CLR,,0.00,WeatherDisplay:10.37,2013-04-25 10:24:00,
2013-04-25 06:26:00,35.4,32.5,30.01,West,270,4.6,4.6,89,0.00,CLR,,0.00,WeatherDisplay:10.37,2013-04-25 10:26:00,
2013-04-25 06:27:00,35.4,32.5,30.01,NW,315,2.3,0.0,89,0.00,CLR,,0.00,WeatherDisplay:10.37,2013-04-25 10:27:00,
2013-04-25 06:28:00,35.4,32.5,30.01,NW,315,6.4,6.4,89,0.00,CLR,,0.00,WeatherDisplay:10.37,2013-04-25 10:28:00,
2013-04-25 06:29:00,35.6,32.7,30.01,WSW,248,6.9,6.9,89,0.00,CLR,,0.00,WeatherDisplay:10.37,2013-04-25 10:29:00,
2013-04-25 06:32:00,35.6,32.7,30.01,WNW,292,4.6,4.6,89,0.00,CLR,,0.00,WeatherDisplay:10.37,2013-04-25 10:32:00,
2013-04-25 06:34:00,35.6,33.0,30.01,NNE,22,1.1,0.0,90,0.00,CLR,,0.00,WeatherDisplay:10.37,2013-04-25 10:34:00,
2013-04-25 06:37:00,35.6,32.7,30.01,WNW,292,0.0,0.0,89,0.00,CLR,,0.00,WeatherDisplay:10.37,2013-04-25 10:37:00,
2013-04-25 06:39:00,35.6,32.7,30.04,NNW,338,3.5,0.0,89,0.00,CLR,,0.00,WeatherDisplay:10.37,2013-04-25 10:39:00,
2013-04-25 06:40:00,35.6,32.7,30.04,WNW,292,0.0,0.0,89,0.00,CLR,,0.00,WeatherDisplay:10.37,2013-04-25 10:40:00,
2013-04-25 06:42:00,35.8,32.9,30.04,NNW,338,3.5,3.5,89,0.00,CLR,,0.00,WeatherDisplay:10.37,2013-04-25 10:42:00,
2013-04-25 06:44:00,36.0,33.0,30.04,WNW,292,2.3,2.3,89,0.00,CLR,,0.00,WeatherDisplay:10.37,2013-04-25 10:44:00,
2013-04-25 06:45:00,36.0,33.0,30.04,NW,315,0.0,0.9,89,0.00,CLR,,0.00,WeatherDisplay:10.37,2013-04-25 10:45:00,
2013-04-25 06:47:00,36.0,33.0,30.04,WNW,292,0.0,0.0,89,0.00,CLR,,0.00,WeatherDisplay:10.37,2013-04-25 10:47:00,
2013-04-25 06:49:00,36.0,33.0,30.04,WNW,292,4.6,4.6,89,0.00,CLR,,0.00,WeatherDisplay:10.37,2013-04-25 10:49:00,
2013-04-25 06:50:00,36.0,33.0,30.04,West,270,0.0,0.0,89,0.00,CLR,,0.00,WeatherDisplay:10.37,2013-04-25 10:50:00,
2013-04-25 06:52:00,36.0,33.0,30.04,North,0,2.3,2.3,89,0.00,CLR,,0.00,WeatherDisplay:10.37,2013-04-25 10:52:00,
2013-04-25 06:53:00,36.1,33.2,30.04,NNW,338,3.1,3.1,89,0.00,CLR,,0.00,WeatherDisplay:10.37,2013-04-25 10:53:00,
2013-04-25 06:54:00,36.1,33.2,30.04,NW,315,3.5,3.5,89,0.00,CLR,,0.00,WeatherDisplay:10.37,2013-04-25 10:54:00,
2013-04-25 06:56:00,36.1,33.2,30.04,SSW,202,0.0,0.0,89,0.00,CLR,,0.00,WeatherDisplay:10.37,2013-04-25 10:56:00,
2013-04-25 06:57:00,36.1,33.2,30.04,West,270,0.0,1.1,89,0.00,CLR,,0.00,WeatherDisplay:10.37,2013-04-25 10:57:00,
2013-04-25 06:58:00,36.1,33.2,30.04,West,270,2.3,2.3,89,0.00,CLR,,0.00,WeatherDisplay:10.37,2013-04-25 10:58:00,
2013-04-25 06:59:00,36.1,33.2,30.04,WNW,292,1.6,0.0,89,0.00,CLR,,0.00,WeatherDisplay:10.37,2013-04-25 10:59:00,
2013-04-25 07:01:00,36.3,33.7,30.04,NNW,338,3.5,3.5,90,0.00,CLR,,0.00,WeatherDisplay:10.37,2013-04-25 11:01:00,
2013-04-25 07:03:00,36.3,33.7,30.04,WSW,248,4.6,4.6,90,0.00,CLR,,0.00,WeatherDisplay:10.37,2013-04-25 11:03:00,
2013-04-25 07:04:00,36.3,33.7,30.04,NNW,338,4.6,0.0,90,0.00,CLR,,0.00,WeatherDisplay:10.37,2013-04-25 11:04:00,
2013-04-25 07:06:00,36.5,33.8,30.04,NW,315,2.6,2.6,90,0.00,CLR,,0.00,WeatherDisplay:10.37,2013-04-25 11:06:00,
2013-04-25 07:08:00,36.7,33.7,30.04,WNW,292,3.5,3.5,89,0.00,CLR,,0.00,WeatherDisplay:10.37,2013-04-25 11:08:00,
2013-04-25 07:09:00,36.7,33.7,30.04,WNW,292,4.6,4.6,89,0.00,CLR,,0.00,WeatherDisplay:10.37,2013-04-25 11:09:00,
2013-04-25 07:11:00,36.7,33.7,30.04,West,270,0.0,0.0,89,0.00,CLR,,0.00,WeatherDisplay:10.37,2013-04-25 11:11:00,
2013-04-25 07:13:00,36.7,33.7,30.04,NNW,338,0.0,0.0,89,0.00,CLR,,0.00,WeatherDisplay:10.37,2013-04-25 11:13:00,
2013-04-25 07:14:00,36.7,33.7,30.04,North,0,0.0,0.0,89,0.00,CLR,,0.00,WeatherDisplay:10.37,2013-04-25 11:14:00,
2013-04-25 07:15:00,36.7,33.7,30.04,NNW,338,0.0,0.0,89,0.00,CLR,,0.00,WeatherDisplay:10.37,2013-04-25 11:15:00,
2013-04-25 07:16:00,36.9,33.9,30.04,WNW,292,0.0,0.0,89,0.00,CLR,,0.00,WeatherDisplay:10.37,2013-04-25 11:16:00,
2013-04-25 07:18:00,36.9,33.9,30.04,NNW,338,0.0,0.0,89,0.00,CLR,,0.00,WeatherDisplay:10.37,2013-04-25 11:18:00,
2013-04-25 07:19:00,36.9,33.6,30.04,WNW,292,0.0,0.0,88,0.00,CLR,,0.00,WeatherDisplay:10.37,2013-04-25 11:19:00,
2013-04-25 07:20:00,37.0,33.8,30.04,North,0,0.0,0.0,88,0.00,CLR,,0.00,WeatherDisplay:10.37,2013-04-25 11:20:00,
2013-04-25 07:22:00,37.0,33.8,30.04,West,270,2.3,2.3,88,0.00,CLR,,0.00,WeatherDisplay:10.37,2013-04-25 11:22:00,
2013-04-25 07:23:00,37.0,33.8,30.04,NW,315,1.1,1.1,88,0.00,CLR,,0.00,WeatherDisplay:10.37,2013-04-25 11:23:00,
2013-04-25 07:24:00,37.2,34.0,30.04,WSW,248,3.5,3.5,88,0.00,CLR,,0.00,WeatherDisplay:10.37,2013-04-25 11:24:00,
2013-04-25 07:26:00,37.2,34.0,30.04,East,90,2.3,0.0,88,0.00,CLR,,0.00,WeatherDisplay:10.37,2013-04-25 11:26:00,
2013-04-25 07:27:00,37.4,34.2,30.04,WNW,292,2.3,0.0,88,0.00,CLR,,0.00,WeatherDisplay:10.37,2013-04-25 11:27:00,
2013-04-25 07:28:00,37.4,34.2,30.04,NW,315,2.3,0.0,88,0.00,CLR,,0.00,WeatherDisplay:10.37,2013-04-25 11:28:00,
2013-04-25 07:29:00,37.4,34.2,30.04,East,90,1.1,1.1,88,0.00,CLR,,0.00,WeatherDisplay:10.37,2013-04-25 11:29:00,
2013-04-25 07:31:00,37.4,34.2,30.04,WNW,292,3.5,3.5,88,0.00,CLR,,0.00,WeatherDisplay:10.37,2013-04-25 11:31:00,
2013-04-25 07:32:00,37.6,34.3,30.04,WSW,248,3.5,3.5,88,0.00,CLR,,0.00,WeatherDisplay:10.37,2013-04-25 11:32:00,
2013-04-25 07:33:00,37.6,34.3,30.04,NNW,338,3.5,3.5,88,0.00,CLR,,0.00,WeatherDisplay:10.37,2013-04-25 11:33:00,
2013-04-25 07:34:00,37.8,34.5,30.04,NW,315,3.3,3.3,88,0.00,CLR,,0.00,WeatherDisplay:10.37,2013-04-25 11:34:00,
2013-04-25 07:35:00,37.8,34.2,30.04,West,270,3.5,3.5,87,0.00,CLR,,0.00,WeatherDisplay:10.37,2013-04-25 11:35:00,
2013-04-25 07:36:00,37.8,34.2,30.04,WNW,292,2.3,0.0,87,0.00,CLR,,0.00,WeatherDisplay:10.37,2013-04-25 11:36:00,
2013-04-25 07:37:00,37.9,34.4,30.04,NNE,22,2.3,0.0,87,0.00,CLR,,0.00,WeatherDisplay:10.37,2013-04-25 11:37:00,
2013-04-25 07:38:00,37.9,34.4,30.04,NW,315,1.1,0.0,87,0.00,CLR,,0.00,WeatherDisplay:10.37,2013-04-25 11:38:00,
2013-04-25 07:39:00,37.9,34.4,30.04,WNW,292,0.0,0.0,87,0.00,CLR,,0.00,WeatherDisplay:10.37,2013-04-25 11:39:00,
2013-04-25 07:40:00,38.1,34.6,30.04,West,270,1.4,0.0,87,0.00,CLR,,0.00,WeatherDisplay:10.37,2013-04-25 11:40:00,
2013-04-25 07:41:00,38.1,34.6,30.04,East,90,5.6,5.6,87,0.00,CLR,,0.00,WeatherDisplay:10.37,2013-04-25 11:41:00,
2013-04-25 07:42:00,38.1,34.6,30.04,NNE,22,5.8,0.0,87,0.00,CLR,,0.00,WeatherDisplay:10.37,2013-04-25 11:42:00,
2013-04-25 07:44:00,38.1,34.6,30.04,NNW,338,2.3,0.0,87,0.00,CLR,,0.00,WeatherDisplay:10.37,2013-04-25 11:44:00,
2013-04-25 07:46:00,38.5,34.9,30.04,WNW,292,4.6,4.6,87,0.00,CLR,,0.00,WeatherDisplay:10.37,2013-04-25 11:46:00,
2013-04-25 07:47:00,38.5,34.9,30.04,NNW,338,2.3,0.0,87,0.00,CLR,,0.00,WeatherDisplay:10.37,2013-04-25 11:47:00,
2013-04-25 07:49:00,38.7,35.1,30.04,WNW,292,0.0,0.0,87,0.00,CLR,,0.00,WeatherDisplay:10.37,2013-04-25 11:49:00,
2013-04-25 07:50:00,38.7,35.1,30.04,ENE,68,0.0,0.0,87,0.00,CLR,,0.00,WeatherDisplay:10.37,2013-04-25 11:50:00,
2013-04-25 07:51:00,38.7,35.1,30.04,WNW,292,0.9,0.0,87,0.00,CLR,,0.00,WeatherDisplay:10.37,2013-04-25 11:51:00,
2013-04-25 07:52:00,38.8,35.3,30.04,NNW,338,1.1,0.0,87,0.00,CLR,,0.00,WeatherDisplay:10.37,2013-04-25 11:52:00,
2013-04-25 07:53:00,38.8,35.3,30.04,WSW,248,0.0,0.0,87,0.00,CLR,,0.00,WeatherDisplay:10.37,2013-04-25 11:53:00,
2013-04-25 07:54:00,38.8,35.3,30.07,WSW,248,1.1,1.1,87,0.00,CLR,,0.00,WeatherDisplay:10.37,2013-04-25 11:54:00,
2013-04-25 07:55:00,39.0,35.2,30.07,West,270,5.8,5.8,86,0.00,CLR,,0.00,WeatherDisplay:10.37,2013-04-25 11:55:00,
2013-04-25 07:56:00,39.0,35.2,30.07,NNW,338,4.6,0.0,86,0.00,CLR,,0.00,WeatherDisplay:10.37,2013-04-25 11:56:00,
2013-04-25 07:57:00,39.2,35.4,30.07,ESE,112,5.8,5.8,86,0.00,CLR,,0.00,WeatherDisplay:10.37,2013-04-25 11:57:00,
2013-04-25 07:58:00,39.2,35.1,30.07,NNW,338,4.6,4.6,85,0.00,CLR,,0.00,WeatherDisplay:10.37,2013-04-25 11:58:00,
2013-04-25 07:59:00,39.2,35.1,30.07,ESE,112,1.1,0.0,85,0.00,CLR,,0.00,WeatherDisplay:10.37,2013-04-25 11:59:00,
2013-04-25 08:00:00,39.2,35.1,30.07,WNW,292,0.0,0.0,85,0.00,CLR,,0.00,WeatherDisplay:10.37,2013-04-25 12:00:00,
2013-04-25 08:01:00,39.4,35.2,30.07,ENE,68,4.6,4.6,85,0.00,CLR,,0.00,WeatherDisplay:10.37,2013-04-25 12:01:00,
2013-04-25 08:02:00,39.6,35.4,30.07,NNE,22,4.6,0.0,85,0.00,CLR,,0.00,WeatherDisplay:10.37,2013-04-25 12:02:00,
2013-04-25 08:04:00,39.6,35.4,30.07,North,0,3.5,0.0,85,0.00,CLR,,0.00,WeatherDisplay:10.37,2013-04-25 12:04:00,
2013-04-25 08:05:00,39.7,35.6,30.07,NNE,22,2.3,0.0,85,0.00,CLR,,0.00,WeatherDisplay:10.37,2013-04-25 12:05:00,
2013-04-25 08:07:00,39.9,35.8,30.07,WSW,248,1.1,0.0,85,0.00,CLR,,0.00,WeatherDisplay:10.37,2013-04-25 12:07:00,
2013-04-25 08:08:00,39.9,35.8,30.07,WNW,292,0.0,0.0,85,0.00,CLR,,0.00,WeatherDisplay:10.37,2013-04-25 12:08:00,
2013-04-25 08:09:00,39.9,35.8,30.07,WNW,292,2.3,2.3,85,0.00,CLR,,0.00,WeatherDisplay:10.37,2013-04-25 12:09:00,
2013-04-25 08:10:00,40.1,36.0,30.07,ENE,68,1.1,0.0,85,0.00,CLR,,0.00,WeatherDisplay:10.37,2013-04-25 12:10:00,
2013-04-25 08:12:00,40.3,35.8,30.07,NNW,338,0.9,0.0,84,0.00,CLR,,0.00,WeatherDisplay:10.37,2013-04-25 12:12:00,
2013-04-25 08:13:00,40.3,35.8,30.07,WSW,248,2.3,0.0,84,0.00,CLR,,0.00,WeatherDisplay:10.37,2013-04-25 12:13:00,
2013-04-25 08:14:00,40.3,35.8,30.07,NW,315,0.0,0.0,84,0.00,CLR,,0.00,WeatherDisplay:10.37,2013-04-25 12:14:00,
2013-04-25 08:15:00,40.5,36.0,30.07,ENE,68,0.0,0.0,84,0.00,CLR,,0.00,WeatherDisplay:10.37,2013-04-25 12:15:00,
2013-04-25 08:18:00,40.6,35.9,30.07,NNW,338,1.1,0.0,83,0.00,CLR,,0.00,WeatherDisplay:10.37,2013-04-25 12:18:00,
2013-04-25 08:19:00,40.8,35.7,30.07,WSW,248,5.4,0.0,82,0.00,CLR,,0.00,WeatherDisplay:10.37,2013-04-25 12:19:00,
2013-04-25 08:20:00,40.8,35.7,30.07,West,270,5.8,5.8,82,0.00,CLR,,0.00,WeatherDisplay:10.37,2013-04-25 12:20:00,
2013-04-25 08:23:00,41.2,35.2,30.07,West,270,2.3,0.0,79,0.00,CLR,,0.00,WeatherDisplay:10.37,2013-04-25 12:23:00,
2013-04-25 08:24:00,41.2,35.2,30.07,NNE,22,1.1,0.0,79,0.00,CLR,,0.00,WeatherDisplay:10.37,2013-04-25 12:24:00,
2013-04-25 08:25:00,41.2,35.2,30.07,WSW,248,4.5,0.0,79,0.00,CLR,,0.00,WeatherDisplay:10.37,2013-04-25 12:25:00,
2013-04-25 08:28:00,41.4,34.7,30.07,ESE,112,8.1,8.1,77,0.00,CLR,,0.00,WeatherDisplay:10.37,2013-04-25 12:28:00,
2013-04-25 08:29:00,41.4,34.7,30.07,NE,45,6.9,6.9,77,0.00,CLR,,0.00,WeatherDisplay:10.37,2013-04-25 12:29:00,
2013-04-25 08:30:00,41.5,34.9,30.07,WNW,292,3.3,3.3,77,0.00,CLR,,0.00,WeatherDisplay:10.37,2013-04-25 12:30:00,
2013-04-25 08:31:00,41.5,34.9,30.07,WNW,292,3.5,3.5,77,0.00,CLR,,0.00,WeatherDisplay:10.37,2013-04-25 12:31:00,
2013-04-25 08:33:00,41.7,35.0,30.07,ESE,112,0.0,0.0,77,0.00,CLR,,0.00,WeatherDisplay:10.37,2013-04-25 12:33:00,
2013-04-25 08:35:00,42.1,35.4,30.07,WNW,292,3.5,3.5,77,0.00,CLR,,0.00,WeatherDisplay:10.37,2013-04-25 12:35:00,
2013-04-25 08:36:00,42.3,35.6,30.07,NW,315,2.3,2.3,77,0.00,CLR,,0.00,WeatherDisplay:10.37,2013-04-25 12:36:00,
2013-04-25 08:38:00,42.6,35.9,30.07,NNW,338,3.5,3.5,77,0.00,CLR,,0.00,WeatherDisplay:10.37,2013-04-25 12:38:00,
2013-04-25 08:40:00,42.8,35.4,30.07,NW,315,8.1,8.1,75,0.00,CLR,,0.00,WeatherDisplay:10.37,2013-04-25 12:40:00,
2013-04-25 08:41:00,42.8,35.1,30.07,East,90,5.8,5.8,74,0.00,CLR,,0.00,WeatherDisplay:10.37,2013-04-25 12:41:00,
2013-04-25 08:44:00,43.2,35.4,30.07,NNW,338,4.7,4.7,74,0.00,CLR,,0.00,WeatherDisplay:10.37,2013-04-25 12:44:00,
2013-04-25 08:45:00,43.2,35.4,30.07,NNE,22,4.6,0.0,74,0.00,CLR,,0.00,WeatherDisplay:10.37,2013-04-25 12:45:00,
2013-04-25 08:46:00,43.2,35.1,30.07,NNE,22,3.5,3.5,73,0.00,CLR,,0.00,WeatherDisplay:10.37,2013-04-25 12:46:00,
2013-04-25 08:49:00,43.5,35.4,30.07,NE,45,1.6,0.0,73,0.00,CLR,,0.00,WeatherDisplay:10.37,2013-04-25 12:49:00,
2013-04-25 08:50:00,43.5,35.4,30.07,NE,45,2.3,2.3,73,0.00,CLR,,0.00,WeatherDisplay:10.37,2013-04-25 12:50:00,
2013-04-25 08:51:00,43.7,35.6,30.07,ESE,112,0.0,0.0,73,0.00,CLR,,0.00,WeatherDisplay:10.37,2013-04-25 12:51:00,
2013-04-25 08:54:00,43.9,35.1,30.07,North,0,0.0,0.0,71,0.00,CLR,,0.00,WeatherDisplay:10.37,2013-04-25 12:54:00,
2013-04-25 08:55:00,44.1,35.3,30.07,NNE,22,4.6,4.6,71,0.00,CLR,,0.00,WeatherDisplay:10.37,2013-04-25 12:55:00,
2013-04-25 08:56:00,44.4,35.6,30.07,NNW,338,4.6,0.0,71,0.00,CLR,,0.00,WeatherDisplay:10.37,2013-04-25 12:56:00,
2013-04-25 08:57:00,44.4,35.6,30.07,NW,315,1.4,0.0,71,0.00,CLR,,0.00,WeatherDisplay:10.37,2013-04-25 12:57:00,
2013-04-25 08:59:00,44.6,35.4,30.07,ESE,112,2.3,0.0,70,0.00,CLR,,0.00,WeatherDisplay:10.37,2013-04-25 12:59:00,
2013-04-25 09:00:00,44.8,35.6,30.07,ENE,68,1.1,0.0,70,0.00,CLR,,0.00,WeatherDisplay:10.37,2013-04-25 13:00:00,
2013-04-25 09:01:00,44.8,35.6,30.07,East,90,0.0,0.0,70,0.00,CLR,,0.00,WeatherDisplay:10.37,2013-04-25 13:01:00,
2013-04-25 09:02:00,45.0,34.7,30.07,ENE,68,0.0,0.0,67,0.00,CLR,,0.00,WeatherDisplay:10.37,2013-04-25 13:02:00,
2013-04-25 09:04:00,44.8,34.1,30.07,ENE,68,0.0,0.0,66,0.00,CLR,,0.00,WeatherDisplay:10.37,2013-04-25 13:04:00,
2013-04-25 09:06:00,44.6,32.4,30.07,ENE,68,4.0,0.0,62,0.00,CLR,,0.00,WeatherDisplay:10.37,2013-04-25 13:06:00,
2013-04-25 09:07:00,44.4,32.2,30.07,NE,45,4.6,4.6,62,0.00,CLR,,0.00,WeatherDisplay:10.37,2013-04-25 13:07:00,
2013-04-25 09:09:00,44.6,32.8,30.07,NE,45,4.9,0.0,63,0.00,CLR,,0.00,WeatherDisplay:10.37,2013-04-25 13:09:00,
2013-04-25 09:11:00,44.6,31.6,30.07,NE,45,4.6,4.6,60,0.00,CLR,,0.00,WeatherDisplay:10.37,2013-04-25 13:11:00,
2013-04-25 09:12:00,44.8,31.3,30.07,East,90,1.1,0.0,59,0.00,CLR,,0.00,WeatherDisplay:10.37,2013-04-25 13:12:00,
2013-04-25 09:14:00,45.1,32.1,30.07,ENE,68,1.1,0.0,60,0.00,CLR,,0.00,WeatherDisplay:10.37,2013-04-25 13:14:00,
2013-04-25 09:16:00,45.5,32.0,30.07,North,0,4.6,4.6,59,0.00,CLR,,0.00,WeatherDisplay:10.37,2013-04-25 13:16:00,
2013-04-25 09:17:00,45.5,32.0,30.07,North,0,4.6,4.6,59,0.00,CLR,,0.00,WeatherDisplay:10.37,2013-04-25 13:17:00,
2013-04-25 09:19:00,46.2,33.1,30.07,WNW,292,0.0,0.0,60,0.00,CLR,,0.00,WeatherDisplay:10.37,2013-04-25 13:19:00,
2013-04-25 09:22:00,46.4,32.4,30.07,NE,45,0.0,0.0,58,0.00,CLR,,0.00,WeatherDisplay:10.37,2013-04-25 13:22:00,
2013-04-25 09:24:00,46.6,31.7,30.07,ESE,112,1.1,1.1,56,0.00,CLR,,0.00,WeatherDisplay:10.37,2013-04-25 13:24:00,
2013-04-25 09:27:00,46.4,30.2,30.07,NNW,338,6.9,6.9,53,0.00,CLR,,0.00,WeatherDisplay:10.37,2013-04-25 13:27:00,
2013-04-25 09:28:00,46.2,30.0,30.07,SW,225,6.9,6.9,53,0.00,CLR,,0.00,WeatherDisplay:10.37,2013-04-25 13:28:00,
2013-04-25 09:29:00,46.2,30.0,30.07,NNE,22,1.4,1.4,53,0.00,CLR,,0.00,WeatherDisplay:10.37,2013-04-25 13:29:00,
2013-04-25 09:32:00,46.4,29.7,30.07,NNW,338,1.1,0.0,52,0.00,CLR,,0.00,WeatherDisplay:10.37,2013-04-25 13:32:00,
2013-04-25 09:33:00,46.8,30.0,30.07,NNW,338,0.0,0.0,52,0.00,CLR,,0.00,WeatherDisplay:10.37,2013-04-25 13:33:00,
2013-04-25 09:34:00,46.9,30.7,30.07,SW,225,2.0,0.0,53,0.00,CLR,,0.00,WeatherDisplay:10.37,2013-04-25 13:34:00,
2013-04-25 09:37:00,46.9,30.2,30.07,North,0,2.0,0.0,52,0.00,CLR,,0.00,WeatherDisplay:10.37,2013-04-25 13:37:00,
2013-04-25 09:38:00,46.9,30.2,30.07,North,0,3.5,3.5,52,0.00,CLR,,0.00,WeatherDisplay:10.37,2013-04-25 13:38:00,
2013-04-25 09:39:00,46.6,29.9,30.07,West,270,5.4,5.4,52,0.00,CLR,,0.00,WeatherDisplay:10.37,2013-04-25 13:39:00,
2013-04-25 09:42:00,45.9,28.7,30.07,NNW,338,3.5,3.5,51,0.00,CLR,,0.00,WeatherDisplay:10.37,2013-04-25 13:42:00,
2013-04-25 09:43:00,45.7,28.6,30.07,NW,315,0.0,0.0,51,0.00,CLR,,0.00,WeatherDisplay:10.37,2013-04-25 13:43:00,
2013-04-25 09:44:00,45.5,28.4,30.07,WNW,292,1.1,0.0,51,0.00,CLR,,0.00,WeatherDisplay:10.37,2013-04-25 13:44:00,
2013-04-25 09:47:00,46.4,29.7,30.07,WNW,292,2.9,2.9,52,0.00,CLR,,0.00,WeatherDisplay:10.37,2013-04-25 13:47:00,
2013-04-25 09:48:00,46.4,28.8,30.07,NNW,338,5.8,5.8,50,0.00,CLR,,0.00,WeatherDisplay:10.37,2013-04-25 13:48:00,
2013-04-25 09:49:00,46.6,29.4,30.07,NW,315,5.8,5.8,51,0.00,CLR,,0.00,WeatherDisplay:10.37,2013-04-25 13:49:00,
2013-04-25 09:50:00,46.8,29.1,30.07,NE,45,0.0,0.0,50,0.00,CLR,,0.00,WeatherDisplay:10.37,2013-04-25 13:50:00,
2013-04-25 09:53:00,47.5,30.7,30.07,WNW,292,1.1,0.0,52,0.00,CLR,,0.00,WeatherDisplay:10.37,2013-04-25 13:53:00,
2013-04-25 09:54:00,47.8,29.6,30.10,WNW,292,1.4,0.0,49,0.00,CLR,,0.00,WeatherDisplay:10.37,2013-04-25 13:54:00,
2013-04-25 09:55:00,47.8,29.6,30.10,West,270,2.3,2.3,49,0.00,CLR,,0.00,WeatherDisplay:10.37,2013-04-25 13:55:00,
2013-04-25 09:58:00,48.6,29.2,30.10,SW,225,2.3,2.3,47,0.00,CLR,,0.00,WeatherDisplay:10.37,2013-04-25 13:58:00,
2013-04-25 09:59:00,48.4,29.1,30.10,WNW,292,4.6,4.6,47,0.00,CLR,,0.00,WeatherDisplay:10.37,2013-04-25 13:59:00,
2013-04-25 10:01:00,48.2,28.4,30.10,ENE,68,5.8,5.8,46,0.00,CLR,,0.00,WeatherDisplay:10.37,2013-04-25 14:01:00,
2013-04-25 10:03:00,47.8,28.6,30.10,NNW,338,3.5,3.5,47,0.00,CLR,,0.00,WeatherDisplay:10.37,2013-04-25 14:03:00,
2013-04-25 10:04:00,47.7,27.3,30.10,WNW,292,6.9,6.9,45,0.00,CLR,,0.00,WeatherDisplay:10.37,2013-04-25 14:04:00,
2013-04-25 10:05:00,47.7,27.9,30.10,WNW,292,6.9,6.9,46,0.00,CLR,,0.00,WeatherDisplay:10.37,2013-04-25 14:05:00,
2013-04-25 10:06:00,47.8,28.6,30.10,NNW,338,3.6,0.0,47,0.00,CLR,,0.00,WeatherDisplay:10.37,2013-04-25 14:06:00,
2013-04-25 10:08:00,48.0,28.7,30.10,NNW,338,4.6,4.6,47,0.00,CLR,,0.00,WeatherDisplay:10.37,2013-04-25 14:08:00,
2013-04-25 10:09:00,48.0,28.7,30.10,NNW,338,2.3,2.3,47,0.00,CLR,,0.00,WeatherDisplay:10.37,2013-04-25 14:09:00,
2013-04-25 10:10:00,48.2,28.4,30.10,SSE,158,1.1,0.0,46,0.00,CLR,,0.00,WeatherDisplay:10.37,2013-04-25 14:10:00,
2013-04-25 10:11:00,48.2,27.8,30.10,West,270,4.3,4.3,45,0.00,CLR,,0.00,WeatherDisplay:10.37,2013-04-25 14:11:00,
2013-04-25 10:13:00,48.2,26.7,30.10,NW,315,5.8,5.8,43,0.00,CLR,,0.00,WeatherDisplay:10.37,2013-04-25 14:13:00,
2013-04-25 10:14:00,48.2,26.7,30.10,NW,315,5.8,5.8,43,0.00,CLR,,0.00,WeatherDisplay:10.37,2013-04-25 14:14:00,
2013-04-25 10:15:00,48.2,26.7,30.10,West,270,2.3,0.0,43,0.00,CLR,,0.00,WeatherDisplay:10.37,2013-04-25 14:15:00,
2013-04-25 10:16:00,48.6,27.6,30.10,ESE,112,0.0,0.0,44,0.00,CLR,,0.00,WeatherDisplay:10.37,2013-04-25 14:16:00,
2013-04-25 10:18:00,48.9,27.4,30.10,NNE,22,0.0,0.9,43,0.00,CLR,,0.00,WeatherDisplay:10.37,2013-04-25 14:18:00,
2013-04-25 10:19:00,49.1,27.0,30.10,ENE,68,1.4,1.4,42,0.00,CLR,,0.00,WeatherDisplay:10.37,2013-04-25 14:19:00,
2013-04-25 10:20:00,49.3,27.7,30.10,West,270,1.1,0.0,43,0.00,CLR,,0.00,WeatherDisplay:10.37,2013-04-25 14:20:00,
2013-04-25 10:22:00,50.0,29.5,30.10,ESE,112,0.0,0.0,45,0.00,CLR,,0.00,WeatherDisplay:10.37,2013-04-25 14:22:00,
2013-04-25 10:24:00,50.4,28.1,30.07,NNE,22,0.0,0.0,42,0.00,CLR,,0.00,WeatherDisplay:10.37,2013-04-25 14:24:00,
2013-04-25 10:25:00,50.7,29.6,30.07,SE,135,0.0,0.0,44,0.00,CLR,,0.00,WeatherDisplay:10.37,2013-04-25 14:25:00,
2013-04-25 10:27:00,51.1,28.8,30.07,North,0,0.0,0.0,42,0.00,CLR,,0.00,WeatherDisplay:10.37,2013-04-25 14:27:00,
2013-04-25 10:29:00,50.7,27.2,30.07,NW,315,5.8,5.8,40,0.00,CLR,,0.00,WeatherDisplay:10.37,2013-04-25 14:29:00,
2013-04-25 10:31:00,50.2,25.5,30.07,WNW,292,4.6,4.6,38,0.00,CLR,,0.00,WeatherDisplay:10.37,2013-04-25 14:31:00,
2013-04-25 10:32:00,49.6,25.7,30.07,NNW,338,3.5,3.5,39,0.00,CLR,,0.00,WeatherDisplay:10.37,2013-04-25 14:32:00,
2013-04-25 10:34:00,50.0,26.6,30.07,West,270,2.3,2.3,40,0.00,CLR,,0.00,WeatherDisplay:10.37,2013-04-25 14:34:00,
2013-04-25 10:36:00,50.0,26.0,30.07,NNE,22,4.6,4.6,39,0.00,CLR,,0.00,WeatherDisplay:10.37,2013-04-25 14:36:00,
2013-04-25 10:37:00,50.0,26.0,30.07,ENE,68,0.0,0.9,39,0.00,CLR,,0.00,WeatherDisplay:10.37,2013-04-25 14:37:00,
2013-04-25 10:39:00,50.2,26.8,30.10,ESE,112,1.1,0.0,40,0.00,CLR,,0.00,WeatherDisplay:10.37,2013-04-25 14:39:00,
2013-04-25 10:41:00,49.8,26.4,30.10,North,0,2.3,0.0,40,0.00,CLR,,0.00,WeatherDisplay:10.37,2013-04-25 14:41:00,
2013-04-25 10:42:00,49.6,26.3,30.10,East,90,0.0,0.0,40,0.00,CLR,,0.00,WeatherDisplay:10.37,2013-04-25 14:42:00,
2013-04-25 10:44:00,49.3,26.0,30.10,NE,45,2.3,2.3,40,0.00,CLR,,0.00,WeatherDisplay:10.37,2013-04-25 14:44:00,
2013-04-25 10:45:00,49.1,26.4,30.10,ENE,68,2.3,2.3,41,0.00,CLR,,0.00,WeatherDisplay:10.37,2013-04-25 14:45:00,
2013-04-25 10:46:00,48.7,26.1,30.10,North,0,2.3,2.4,41,0.00,CLR,,0.00,WeatherDisplay:10.37,2013-04-25 14:46:00,
2013-04-25 10:47:00,48.7,26.1,30.10,North,0,6.9,6.9,41,0.00,CLR,,0.00,WeatherDisplay:10.37,2013-04-25 14:47:00,
2013-04-25 10:49:00,48.4,26.3,30.10,ENE,68,0.9,0.0,42,0.00,CLR,,0.00,WeatherDisplay:10.37,2013-04-25 14:49:00,
2013-04-25 10:50:00,48.4,25.1,30.10,East,90,1.1,0.0,40,0.00,CLR,,0.00,WeatherDisplay:10.37,2013-04-25 14:50:00,
2013-04-25 10:52:00,48.7,26.1,30.10,NNW,338,6.9,0.0,41,0.00,CLR,,0.00,WeatherDisplay:10.37,2013-04-25 14:52:00,
2013-04-25 10:55:00,49.6,26.9,30.10,East,90,4.9,0.0,41,0.00,CLR,,0.00,WeatherDisplay:10.37,2013-04-25 14:55:00,
2013-04-25 10:57:00,50.0,24.1,30.10,NNW,338,6.9,6.9,36,0.00,CLR,,0.00,WeatherDisplay:10.37,2013-04-25 14:57:00,
2013-04-25 10:58:00,50.4,24.4,30.10,West,270,2.3,2.3,36,0.00,CLR,,0.00,WeatherDisplay:10.37,2013-04-25 14:58:00,
2013-04-25 11:00:00,50.5,23.9,30.10,West,270,2.3,2.3,35,0.00,CLR,,0.00,WeatherDisplay:10.37,2013-04-25 15:00:00,
2013-04-25 11:02:00,50.9,23.5,30.10,NNE,22,2.3,2.3,34,0.00,CLR,,0.00,WeatherDisplay:10.37,2013-04-25 15:02:00,
2013-04-25 11:03:00,51.6,25.5,30.10,NW,315,1.4,0.0,36,0.00,CLR,,0.00,WeatherDisplay:10.37,2013-04-25 15:03:00,
2013-04-25 11:05:00,52.0,25.8,30.10,West,270,0.0,0.0,36,0.00,CLR,,0.00,WeatherDisplay:10.37,2013-04-25 15:05:00,
2013-04-25 11:07:00,52.7,26.5,30.10,WNW,292,2.3,0.0,36,0.00,CLR,,0.00,WeatherDisplay:10.37,2013-04-25 15:07:00,
2013-04-25 11:08:00,52.7,26.5,30.10,NNE,22,0.0,0.0,36,0.00,CLR,,0.00,WeatherDisplay:10.37,2013-04-25 15:08:00,
2013-04-25 11:10:00,53.1,26.8,30.10,West,270,4.6,4.6,36,0.00,CLR,,0.00,WeatherDisplay:10.37,2013-04-25 15:10:00,
2013-04-25 11:13:00,53.2,26.9,30.10,WSW,248,2.3,0.0,36,0.00,CLR,,0.00,WeatherDisplay:10.37,2013-04-25 15:13:00,
2013-04-25 11:15:00,53.2,26.9,30.10,WNW,292,4.6,4.6,36,0.00,CLR,,0.00,WeatherDisplay:10.37,2013-04-25 15:15:00,
2013-04-25 11:18:00,53.2,24.8,30.10,WNW,292,5.8,5.8,33,0.00,CLR,,0.00,WeatherDisplay:10.37,2013-04-25 15:18:00,
2013-04-25 11:20:00,53.1,23.2,30.10,WNW,292,6.9,6.9,31,0.00,CLR,,0.00,WeatherDisplay:10.37,2013-04-25 15:20:00,
2013-04-25 11:23:00,53.1,23.2,30.10,WNW,292,5.8,5.8,31,0.00,CLR,,0.00,WeatherDisplay:10.37,2013-04-25 15:23:00,
2013-04-25 11:24:00,53.1,23.2,30.07,NNW,338,2.3,2.3,31,0.00,CLR,,0.00,WeatherDisplay:10.37,2013-04-25 15:24:00,
2013-04-25 11:25:00,53.4,21.9,30.07,WNW,292,6.9,6.9,29,0.00,CLR,,0.00,WeatherDisplay:10.37,2013-04-25 15:25:00,
2013-04-25 11:28:00,54.3,22.7,30.07,NW,315,4.6,4.6,29,0.00,CLR,,0.00,WeatherDisplay:10.37,2013-04-25 15:28:00,
2013-04-25 11:29:00,54.1,21.7,30.07,West,270,8.1,8.1,28,0.00,CLR,,0.00,WeatherDisplay:10.37,2013-04-25 15:29:00,
2013-04-25 11:30:00,54.3,22.7,30.07,NW,315,3.5,3.5,29,0.00,CLR,,0.00,WeatherDisplay:10.37,2013-04-25 15:30:00,
2013-04-25 11:31:00,54.3,22.7,30.07,NW,315,3.5,3.5,29,0.00,CLR,,0.00,WeatherDisplay:10.37,2013-04-25 15:31:00,
2013-04-25 11:33:00,54.5,22.0,30.07,NE,45,1.1,0.0,28,0.00,CLR,,0.00,WeatherDisplay:10.37,2013-04-25 15:33:00,
2013-04-25 11:34:00,54.5,22.0,30.07,NNE,22,2.2,2.2,28,0.00,CLR,,0.00,WeatherDisplay:10.37,2013-04-25 15:34:00,
2013-04-25 11:36:00,54.9,22.3,30.07,NNE,22,2.3,2.3,28,0.00,CLR,,0.00,WeatherDisplay:10.37,2013-04-25 15:36:00,
2013-04-25 11:38:00,55.4,21.9,30.07,North,0,0.0,0.0,27,0.00,CLR,,0.00,WeatherDisplay:10.37,2013-04-25 15:38:00,
2013-04-25 11:39:00,55.6,22.1,30.07,East,90,0.0,0.0,27,0.00,CLR,,0.00,WeatherDisplay:10.37,2013-04-25 15:39:00,
2013-04-25 11:41:00,55.4,21.0,30.07,WNW,292,0.0,0.0,26,0.00,CLR,,0.00,WeatherDisplay:10.37,2013-04-25 15:41:00,
2013-04-25 11:44:00,56.1,22.6,30.07,ENE,68,0.0,0.0,27,0.00,CLR,,0.00,WeatherDisplay:10.37,2013-04-25 15:44:00,
2013-04-25 11:46:00,56.1,22.6,30.07,West,270,5.8,5.8,27,0.00,CLR,,0.00,WeatherDisplay:10.37,2013-04-25 15:46:00,
2013-04-25 11:49:00,55.9,22.4,30.07,South,180,2.3,0.0,27,0.00,CLR,,0.00,WeatherDisplay:10.37,2013-04-25 15:49:00,
2013-04-25 11:50:00,55.9,22.4,30.07,SW,225,2.3,2.3,27,0.00,CLR,,0.00,WeatherDisplay:10.37,2013-04-25 15:50:00,
2013-04-25 11:51:00,55.9,22.4,30.07,SW,225,0.0,0.0,27,0.00,CLR,,0.00,WeatherDisplay:10.37,2013-04-25 15:51:00,
2013-04-25 11:54:00,56.3,22.7,30.07,North,0,0.0,0.0,27,0.00,CLR,,0.00,WeatherDisplay:10.37,2013-04-25 15:54:00,
2013-04-25 11:55:00,56.3,22.7,30.07,WNW,292,2.3,2.3,27,0.00,CLR,,0.00,WeatherDisplay:10.37,2013-04-25 15:55:00,
2013-04-25 11:56:00,56.8,24.0,30.07,ESE,112,2.3,2.3,28,0.00,CLR,,0.00,WeatherDisplay:10.37,2013-04-25 15:56:00,
2013-04-25 11:57:00,56.8,24.0,30.07,NNE,22,1.4,0.0,28,0.00,CLR,,0.00,WeatherDisplay:10.37,2013-04-25 15:57:00,
2013-04-25 11:59:00,57.2,23.5,30.07,NNW,338,3.5,3.5,27,0.00,CLR,,0.00,WeatherDisplay:10.37,2013-04-25 15:59:00,
2013-04-25 12:00:00,57.2,22.6,30.07,North,0,3.5,3.5,26,0.00,CLR,,0.00,WeatherDisplay:10.37,2013-04-25 16:00:00,
2013-04-25 12:01:00,57.2,22.6,30.07,ENE,68,2.3,2.3,26,0.00,CLR,,0.00,WeatherDisplay:10.37,2013-04-25 16:01:00,
2013-04-25 12:02:00,57.2,22.6,30.07,NNE,22,1.1,0.0,26,0.00,CLR,,0.00,WeatherDisplay:10.37,2013-04-25 16:02:00,
2013-04-25 12:05:00,57.4,21.8,30.07,WNW,292,0.0,0.0,25,0.00,CLR,,0.00,WeatherDisplay:10.37,2013-04-25 16:05:00,
2013-04-25 12:06:00,57.4,21.8,30.07,North,0,0.0,0.0,25,0.00,CLR,,0.00,WeatherDisplay:10.37,2013-04-25 16:06:00,
2013-04-25 12:07:00,57.6,22.0,30.07,ESE,112,2.2,0.0,25,0.00,CLR,,0.00,WeatherDisplay:10.37,2013-04-25 16:07:00,
2013-04-25 12:10:00,57.4,21.8,30.07,North,0,2.3,2.3,25,0.00,CLR,,0.00,WeatherDisplay:10.37,2013-04-25 16:10:00,
2013-04-25 12:11:00,57.2,21.6,30.07,NNE,22,2.3,2.3,25,0.00,CLR,,0.00,WeatherDisplay:10.37,2013-04-25 16:11:00,
2013-04-25 12:12:00,57.0,21.5,30.07,NE,45,1.1,1.1,25,0.00,CLR,,0.00,WeatherDisplay:10.37,2013-04-25 16:12:00,
2013-04-25 12:15:00,57.6,22.0,30.07,ESE,112,0.0,0.0,25,0.00,CLR,,0.00,WeatherDisplay:10.37,2013-04-25 16:15:00,
2013-04-25 12:16:00,57.6,22.0,30.07,NNW,338,2.9,2.9,25,0.00,CLR,,0.00,WeatherDisplay:10.37,2013-04-25 16:16:00,
2013-04-25 12:17:00,57.6,22.0,30.07,NNW,338,3.5,3.5,25,0.00,CLR,,0.00,WeatherDisplay:10.37,2013-04-25 16:17:00,
2013-04-25 12:21:00,57.7,21.1,30.07,NNW,338,0.0,0.0,24,0.00,CLR,,0.00,WeatherDisplay:10.37,2013-04-25 16:21:00,
2013-04-25 12:22:00,57.7,22.1,30.07,WNW,292,2.4,2.4,25,0.00,CLR,,0.00,WeatherDisplay:10.37,2013-04-25 16:22:00,
2013-04-25 12:26:00,58.3,22.6,30.07,WSW,248,0.0,0.0,25,0.00,CLR,,0.00,WeatherDisplay:10.37,2013-04-25 16:26:00,
2013-04-25 12:27:00,58.5,22.7,30.07,NW,315,0.9,0.0,25,0.00,CLR,,0.00,WeatherDisplay:10.37,2013-04-25 16:27:00,
2013-04-25 12:28:00,58.5,22.7,30.07,NNW,338,3.5,0.0,25,0.00,CLR,,0.00,WeatherDisplay:10.37,2013-04-25 16:28:00,
2013-04-25 12:31:00,59.4,23.5,30.07,NNW,338,0.0,0.0,25,0.00,CLR,,0.00,WeatherDisplay:10.37,2013-04-25 16:31:00,
2013-04-25 12:32:00,59.4,23.5,30.07,WNW,292,4.0,0.0,25,0.00,CLR,,0.00,WeatherDisplay:10.37,2013-04-25 16:32:00,
2013-04-25 12:33:00,59.0,22.2,30.07,WNW,292,4.6,4.6,24,0.00,CLR,,0.00,WeatherDisplay:10.37,2013-04-25 16:33:00,
2013-04-25 12:36:00,59.0,22.2,30.07,NNW,338,3.5,0.0,24,0.00,CLR,,0.00,WeatherDisplay:10.37,2013-04-25 16:36:00,
2013-04-25 12:37:00,58.6,19.9,30.07,NW,315,2.3,2.3,22,0.00,CLR,,0.00,WeatherDisplay:10.37,2013-04-25 16:37:00,
2013-04-25 12:38:00,58.6,19.9,30.07,WSW,248,4.6,4.6,22,0.00,CLR,,0.00,WeatherDisplay:10.37,2013-04-25 16:38:00,
2013-04-25 12:39:00,59.0,20.2,30.04,WNW,292,4.6,0.0,22,0.00,CLR,,0.00,WeatherDisplay:10.37,2013-04-25 16:39:00,
2013-04-25 12:41:00,58.6,19.9,30.04,SSE,158,0.0,0.0,22,0.00,CLR,,0.00,WeatherDisplay:10.37,2013-04-25 16:41:00,
2013-04-25 12:42:00,58.5,16.3,30.04,East,90,0.0,0.0,19,0.00,CLR,,0.00,WeatherDisplay:10.37,2013-04-25 16:42:00,
2013-04-25 12:43:00,58.8,16.6,30.04,NNW,338,0.0,0.0,19,0.00,CLR,,0.00,WeatherDisplay:10.37,2013-04-25 16:43:00,
2013-04-25 12:44:00,59.0,20.2,30.04,NNW,338,0.0,0.0,22,0.00,CLR,,0.00,WeatherDisplay:10.37,2013-04-25 16:44:00,
2013-04-25 12:46:00,59.7,17.3,30.04,WNW,292,0.0,0.0,19,0.00,CLR,,0.00,WeatherDisplay:10.37,2013-04-25 16:46:00,
2013-04-25 12:47:00,59.7,17.3,30.04,NNW,338,0.0,0.0,19,0.00,CLR,,0.00,WeatherDisplay:10.37,2013-04-25 16:47:00,
2013-04-25 12:48:00,59.7,17.3,30.04,WSW,248,2.3,0.0,19,0.00,CLR,,0.00,WeatherDisplay:10.37,2013-04-25 16:48:00,
2013-04-25 12:49:00,58.8,16.6,30.04,West,270,0.0,0.0,19,0.00,CLR,,0.00,WeatherDisplay:10.37,2013-04-25 16:49:00,
2013-04-25 12:52:00,59.5,17.2,30.04,SSE,158,1.1,0.0,19,0.00,CLR,,0.00,WeatherDisplay:10.37,2013-04-25 16:52:00,
2013-04-25 12:53:00,59.9,17.5,30.04,NNE,22,0.0,0.0,19,0.00,CLR,,0.00,WeatherDisplay:10.37,2013-04-25 16:53:00,
2013-04-25 12:54:00,59.5,17.2,30.04,ENE,68,0.0,0.0,19,0.00,CLR,,0.00,WeatherDisplay:10.37,2013-04-25 16:54:00,
2013-04-25 12:57:00,59.2,16.9,30.04,North,0,0.0,0.0,19,0.00,CLR,,0.00,WeatherDisplay:10.37,2013-04-25 16:57:00,
2013-04-25 12:58:00,59.0,16.7,30.04,East,90,0.0,0.0,19,0.00,CLR,,0.00,WeatherDisplay:10.37,2013-04-25 16:58:00,
2013-04-25 13:00:00,58.8,20.0,30.04,North,0,0.0,0.0,22,0.00,CLR,,0.00,WeatherDisplay:10.37,2013-04-25 17:00:00,
2013-04-25 13:02:00,58.5,19.7,30.04,NNE,22,0.0,0.0,22,0.00,CLR,,0.00,WeatherDisplay:10.37,2013-04-25 17:02:00,
2013-04-25 13:03:00,58.6,16.4,30.04,NNE,22,0.0,0.0,19,0.00,CLR,,0.00,WeatherDisplay:10.37,2013-04-25 17:03:00,
2013-04-25 13:04:00,58.6,16.4,30.04,ENE,68,0.0,0.0,19,0.00,CLR,,0.00,WeatherDisplay:10.37,2013-04-25 17:04:00,
2013-04-25 13:05:00,58.8,16.6,30.04,NE,45,0.0,0.0,19,0.00,CLR,,0.00,WeatherDisplay:10.37,2013-04-25 17:05:00,
2013-04-25 13:07:00,59.5,20.6,30.04,ENE,68,0.0,0.0,22,0.00,CLR,,0.00,WeatherDisplay:10.37,2013-04-25 17:07:00,
2013-04-25 13:08:00,59.9,20.9,30.04,NE,45,0.0,0.0,22,0.00,CLR,,0.00,WeatherDisplay:10.37,2013-04-25 17:08:00,
2013-04-25 13:09:00,59.9,20.9,30.04,WNW,292,0.0,0.0,22,0.00,CLR,,0.00,WeatherDisplay:10.37,2013-04-25 17:09:00,
2013-04-25 13:10:00,59.7,20.8,30.04,NW,315,1.1,0.0,22,0.00,CLR,,0.00,WeatherDisplay:10.37,2013-04-25 17:10:00,
2013-04-25 13:12:00,59.7,17.3,30.04,NE,45,0.0,0.0,19,0.00,CLR,,0.00,WeatherDisplay:10.37,2013-04-25 17:12:00,
2013-04-25 13:13:00,59.7,17.3,30.04,West,270,0.0,0.0,19,0.00,CLR,,0.00,WeatherDisplay:10.37,2013-04-25 17:13:00,
2013-04-25 13:14:00,59.7,17.3,30.04,NNW,338,1.1,0.0,19,0.00,CLR,,0.00,WeatherDisplay:10.37,2013-04-25 17:14:00,
2013-04-25 13:15:00,60.3,17.8,30.04,East,90,0.0,0.0,19,0.00,CLR,,0.00,WeatherDisplay:10.37,2013-04-25 17:15:00,
2013-04-25 13:17:00,61.0,18.4,30.04,North,0,0.0,0.0,19,0.00,CLR,,0.00,WeatherDisplay:10.37,2013-04-25 17:17:00,
2013-04-25 13:18:00,61.0,18.4,30.04,West,270,0.0,0.0,19,0.00,CLR,,0.00,WeatherDisplay:10.37,2013-04-25 17:18:00,
2013-04-25 13:19:00,60.4,17.9,30.04,NW,315,1.1,0.0,19,0.00,CLR,,0.00,WeatherDisplay:10.37,2013-04-25 17:19:00,
2013-04-25 13:20:00,61.0,18.4,30.04,SW,225,0.0,0.0,19,0.00,CLR,,0.00,WeatherDisplay:10.37,2013-04-25 17:20:00,
2013-04-25 13:22:00,60.1,17.6,30.04,NW,315,5.8,5.8,19,0.00,CLR,,0.00,WeatherDisplay:10.37,2013-04-25 17:22:00,
2013-04-25 13:23:00,59.9,17.5,30.04,WNW,292,2.4,2.4,19,0.00,CLR,,0.00,WeatherDisplay:10.37,2013-04-25 17:23:00,
2013-04-25 13:24:00,59.5,17.2,30.01,West,270,2.3,2.3,19,0.00,CLR,,0.00,WeatherDisplay:10.37,2013-04-25 17:24:00,
2013-04-25 13:25:00,59.7,14.8,30.01,WNW,292,2.3,2.3,17,0.00,CLR,,0.00,WeatherDisplay:10.37,2013-04-25 17:25:00,
2013-04-25 13:27:00,59.7,17.3,30.01,ESE,112,2.3,0.0,19,0.00,CLR,,0.00,WeatherDisplay:10.37,2013-04-25 17:27:00,
2013-04-25 13:28:00,60.3,17.8,30.01,SE,135,0.0,0.0,19,0.00,CLR,,0.00,WeatherDisplay:10.37,2013-04-25 17:28:00,
2013-04-25 13:29:00,60.8,18.2,30.01,West,270,0.0,0.0,19,0.00,CLR,,0.00,WeatherDisplay:10.37,2013-04-25 17:29:00,
2013-04-25 13:30:00,60.8,18.2,30.01,WNW,292,0.0,0.0,19,0.00,CLR,,0.00,WeatherDisplay:10.37,2013-04-25 17:30:00,
2013-04-25 13:32:00,62.1,19.3,30.01,West,270,0.0,0.0,19,0.00,CLR,,0.00,WeatherDisplay:10.37,2013-04-25 17:32:00,
2013-04-25 13:33:00,62.2,19.4,30.01,NE,45,0.0,0.0,19,0.00,CLR,,0.00,WeatherDisplay:10.37,2013-04-25 17:33:00,
2013-04-25 13:34:00,62.2,19.4,30.01,North,0,0.0,0.0,19,0.00,CLR,,0.00,WeatherDisplay:10.37,2013-04-25 17:34:00,
2013-04-25 13:35:00,61.5,18.8,30.01,SW,225,0.0,0.0,19,0.00,CLR,,0.00,WeatherDisplay:10.37,2013-04-25 17:35:00,
2013-04-25 13:37:00,62.4,19.6,30.01,ESE,112,0.0,0.0,19,0.00,CLR,,0.00,WeatherDisplay:10.37,2013-04-25 17:37:00,
2013-04-25 13:38:00,62.6,18.4,30.01,NNW,338,0.0,0.0,18,0.00,CLR,,0.00,WeatherDisplay:10.37,2013-04-25 17:38:00,
2013-04-25 13:39:00,63.0,18.7,30.04,ESE,112,0.0,0.0,18,0.00,CLR,,0.00,WeatherDisplay:10.37,2013-04-25 17:39:00,
2013-04-25 13:40:00,63.0,18.7,30.04,SSW,202,0.0,0.0,18,0.00,CLR,,0.00,WeatherDisplay:10.37,2013-04-25 17:40:00,
2013-04-25 13:41:00,62.4,19.6,30.04,WNW,292,0.0,0.0,19,0.00,CLR,,0.00,WeatherDisplay:10.37,2013-04-25 17:41:00,
2013-04-25 13:43:00,63.0,18.7,30.04,North,0,0.0,0.0,18,0.00,CLR,,0.00,WeatherDisplay:10.37,2013-04-25 17:43:00,
2013-04-25 13:44:00,62.2,19.4,30.04,West,270,1.1,0.0,19,0.00,CLR,,0.00,WeatherDisplay:10.37,2013-04-25 17:44:00,
2013-04-25 13:45:00,61.5,14.8,30.04,WNW,292,1.1,0.0,16,0.00,CLR,,0.00,WeatherDisplay:10.37,2013-04-25 17:45:00,
2013-04-25 13:46:00,61.7,15.0,30.04,West,270,1.1,0.0,16,0.00,CLR,,0.00,WeatherDisplay:10.37,2013-04-25 17:46:00,
2013-04-25 13:48:00,61.7,15.0,30.04,SW,225,0.0,0.0,16,0.00,CLR,,0.00,WeatherDisplay:10.37,2013-04-25 17:48:00,
2013-04-25 13:49:00,62.1,15.3,30.04,WNW,292,0.0,0.0,16,0.00,CLR,,0.00,WeatherDisplay:10.37,2013-04-25 17:49:00,
2013-04-25 13:50:00,62.2,15.4,30.04,West,270,0.0,0.0,16,0.00,CLR,,0.00,WeatherDisplay:10.37,2013-04-25 17:50:00,
2013-04-25 13:52:00,61.3,14.7,30.04,WSW,248,10.2,10.2,16,0.00,CLR,,0.00,WeatherDisplay:10.37,2013-04-25 17:52:00,
2013-04-25 13:53:00,61.9,15.1,30.04,NE,45,10.4,10.4,16,0.00,CLR,,0.00,WeatherDisplay:10.37,2013-04-25 17:53:00,
2013-04-25 13:54:00,61.9,15.1,30.04,WNW,292,1.1,4.0,16,0.00,CLR,,0.00,WeatherDisplay:10.37,2013-04-25 17:54:00,
2013-04-25 13:55:00,62.1,15.3,30.04,WSW,248,3.5,3.5,16,0.00,CLR,,0.00,WeatherDisplay:10.37,2013-04-25 17:55:00,
2013-04-25 13:56:00,62.1,15.3,30.04,SSW,202,3.5,3.5,16,0.00,CLR,,0.00,WeatherDisplay:10.37,2013-04-25 17:56:00,
2013-04-25 13:57:00,63.1,18.9,30.04,WNW,292,0.0,0.0,18,0.00,CLR,,0.00,WeatherDisplay:10.37,2013-04-25 17:57:00,
2013-04-25 13:58:00,63.5,19.2,30.04,NNW,338,0.0,0.0,18,0.00,CLR,,0.00,WeatherDisplay:10.37,2013-04-25 17:58:00,
2013-04-25 13:59:00,63.5,19.2,30.04,NNW,338,0.0,0.0,18,0.00,CLR,,0.00,WeatherDisplay:10.37,2013-04-25 17:59:00,
2013-04-25 14:00:00,63.7,19.3,30.04,NNW,338,0.0,0.0,18,0.00,CLR,,0.00,WeatherDisplay:10.37,2013-04-25 18:00:00,
2013-04-25 14:01:00,63.7,19.3,30.04,NNW,338,0.0,0.0,18,0.00,CLR,,0.00,WeatherDisplay:10.37,2013-04-25 18:01:00,
2013-04-25 14:02:00,63.3,16.3,30.04,NW,315,3.5,0.0,16,0.00,CLR,,0.00,WeatherDisplay:10.37,2013-04-25 18:02:00,
2013-04-25 14:04:00,63.1,16.2,30.04,WNW,292,0.0,0.0,16,0.00,CLR,,0.00,WeatherDisplay:10.37,2013-04-25 18:04:00,
2013-04-25 14:06:00,63.7,16.6,30.04,WSW,248,0.0,0.0,16,0.00,CLR,,0.00,WeatherDisplay:10.37,2013-04-25 18:06:00,
2013-04-25 14:07:00,63.5,16.4,30.04,WNW,292,0.0,0.0,16,0.00,CLR,,0.00,WeatherDisplay:10.37,2013-04-25 18:07:00,
2013-04-25 14:09:00,63.0,16.0,30.04,WNW,292,0.9,0.0,16,0.00,CLR,,0.00,WeatherDisplay:10.37,2013-04-25 18:09:00,
2013-04-25 14:11:00,63.3,16.3,30.04,SSW,202,0.0,0.0,16,0.00,CLR,,0.00,WeatherDisplay:10.37,2013-04-25 18:11:00,
2013-04-25 14:12:00,63.0,16.0,30.04,WNW,292,0.0,0.0,16,0.00,CLR,,0.00,WeatherDisplay:10.37,2013-04-25 18:12:00,
2013-04-25 14:14:00,61.9,15.1,30.04,WSW,248,0.0,0.0,16,0.00,CLR,,0.00,WeatherDisplay:10.37,2013-04-25 18:14:00,
2013-04-25 14:16:00,62.2,15.4,30.04,NNE,22,0.0,0.0,16,0.00,CLR,,0.00,WeatherDisplay:10.37,2013-04-25 18:16:00,
2013-04-25 14:17:00,63.0,16.0,30.04,NE,45,0.0,0.0,16,0.00,CLR,,0.00,WeatherDisplay:10.37,2013-04-25 18:17:00,
2013-04-25 14:18:00,63.1,16.2,30.04,East,90,0.0,0.0,16,0.00,CLR,,0.00,WeatherDisplay:10.37,2013-04-25 18:18:00,
2013-04-25 14:19:00,62.8,15.9,30.04,West,270,3.3,4.9,16,0.00,CLR,,0.00,WeatherDisplay:10.37,2013-04-25 18:19:00,
2013-04-25 14:20:00,62.8,15.9,30.04,NNE,22,6.9,6.9,16,0.00,CLR,,0.00,WeatherDisplay:10.37,2013-04-25 18:20:00,
2013-04-25 14:21:00,62.8,15.9,30.04,NNW,338,5.8,5.8,16,0.00,CLR,,0.00,WeatherDisplay:10.37,2013-04-25 18:21:00,
2013-04-25 14:22:00,63.0,16.0,30.04,NW,315,6.9,6.9,16,0.00,CLR,,0.00,WeatherDisplay:10.37,2013-04-25 18:22:00,
2013-04-25 14:23:00,63.0,16.0,30.04,NW,315,5.8,5.8,16,0.00,CLR,,0.00,WeatherDisplay:10.37,2013-04-25 18:23:00,
2013-04-25 14:25:00,63.0,16.0,30.04,WNW,292,6.9,6.9,16,0.00,CLR,,0.00,WeatherDisplay:10.37,2013-04-25 18:25:00,
2013-04-25 14:26:00,62.6,15.7,30.04,NW,315,6.9,6.9,16,0.00,CLR,,0.00,WeatherDisplay:10.37,2013-04-25 18:26:00,
2013-04-25 14:27:00,63.0,16.0,30.04,ESE,112,5.8,5.8,16,0.00,CLR,,0.00,WeatherDisplay:10.37,2013-04-25 18:27:00,
2013-04-25 14:28:00,63.9,16.7,30.04,North,0,3.1,3.1,16,0.00,CLR,,0.00,WeatherDisplay:10.37,2013-04-25 18:28:00,
2013-04-25 14:30:00,63.0,16.0,30.04,WNW,292,4.3,4.3,16,0.00,CLR,,0.00,WeatherDisplay:10.37,2013-04-25 18:30:00,
2013-04-25 14:31:00,62.1,15.3,30.04,ENE,68,4.6,4.6,16,0.00,CLR,,0.00,WeatherDisplay:10.37,2013-04-25 18:31:00,
2013-04-25 14:32:00,61.9,15.1,30.04,North,0,3.5,3.5,16,0.00,CLR,,0.00,WeatherDisplay:10.37,2013-04-25 18:32:00,
2013-04-25 14:33:00,62.4,15.6,30.04,NE,45,4.6,4.6,16,0.00,CLR,,0.00,WeatherDisplay:10.37,2013-04-25 18:33:00,
2013-04-25 14:35:00,61.7,15.0,30.04,ENE,68,6.2,6.2,16,0.00,CLR,,0.00,WeatherDisplay:10.37,2013-04-25 18:35:00,
2013-04-25 14:36:00,61.7,15.0,30.04,NNE,22,5.8,5.8,16,0.00,CLR,,0.00,WeatherDisplay:10.37,2013-04-25 18:36:00,
2013-04-25 14:37:00,62.2,15.4,30.04,East,90,5.8,5.8,16,0.00,CLR,,0.00,WeatherDisplay:10.37,2013-04-25 18:37:00,
2013-04-25 14:38:00,62.2,15.4,30.04,East,90,2.3,2.4,16,0.00,CLR,,0.00,WeatherDisplay:10.37,2013-04-25 18:38:00,
2013-04-25 14:40:00,62.2,19.4,30.04,WSW,248,9.2,9.2,19,0.00,CLR,,0.00,WeatherDisplay:10.37,2013-04-25 18:40:00,
2013-04-25 14:41:00,62.2,19.4,30.04,WNW,292,9.2,9.2,19,0.00,CLR,,0.00,WeatherDisplay:10.37,2013-04-25 18:41:00,
2013-04-25 14:42:00,62.2,15.4,30.04,North,0,5.8,5.8,16,0.00,CLR,,0.00,WeatherDisplay:10.37,2013-04-25 18:42:00,
2013-04-25 14:43:00,62.2,15.4,30.04,West,270,8.1,8.1,16,0.00,CLR,,0.00,WeatherDisplay:10.37,2013-04-25 18:43:00,
2013-04-25 14:45:00,63.1,16.2,30.04,WNW,292,5.8,5.8,16,0.00,CLR,,0.00,WeatherDisplay:10.37,2013-04-25 18:45:00,
2013-04-25 14:46:00,63.9,16.7,30.04,NNW,338,5.8,5.8,16,0.00,CLR,,0.00,WeatherDisplay:10.37,2013-04-25 18:46:00,
2013-04-25 14:47:00,64.0,16.9,30.04,WSW,248,3.5,3.5,16,0.00,CLR,,0.00,WeatherDisplay:10.37,2013-04-25 18:47:00,
2013-04-25 14:48:00,63.9,16.7,30.04,NNW,338,3.5,3.5,16,0.00,CLR,,0.00,WeatherDisplay:10.37,2013-04-25 18:48:00,
2013-04-25 14:51:00,64.8,16.0,30.04,WNW,292,3.5,3.5,15,0.00,CLR,,0.00,WeatherDisplay:10.37,2013-04-25 18:51:00,
2013-04-25 14:52:00,64.9,16.1,30.04,East,90,3.5,0.0,15,0.00,CLR,,0.00,WeatherDisplay:10.37,2013-04-25 18:52:00,
2013-04-25 14:53:00,65.3,16.4,30.07,North,0,0.0,0.0,15,0.00,CLR,,0.00,WeatherDisplay:10.37,2013-04-25 18:53:00,
2013-04-25 14:54:00,64.8,16.0,30.07,North,0,0.0,0.0,15,0.00,CLR,,0.00,WeatherDisplay:10.37,2013-04-25 18:54:00,
2013-04-25 14:56:00,64.4,15.7,30.07,East,90,4.6,4.6,15,0.00,CLR,,0.00,WeatherDisplay:10.37,2013-04-25 18:56:00,
2013-04-25 14:57:00,64.4,15.7,30.07,ENE,68,3.5,3.5,15,0.00,CLR,,0.00,WeatherDisplay:10.37,2013-04-25 18:57:00,
2013-04-25 14:58:00,64.4,15.7,30.07,ENE,68,2.3,2.3,15,0.00,CLR,,0.00,WeatherDisplay:10.37,2013-04-25 18:58:00,
2013-04-25 14:59:00,65.3,16.4,30.07,East,90,2.0,2.0,15,0.00,CLR,,0.00,WeatherDisplay:10.37,2013-04-25 18:59:00,
2013-04-25 15:01:00,66.2,17.1,30.07,East,90,2.3,2.3,15,0.00,CLR,,0.00,WeatherDisplay:10.37,2013-04-25 19:01:00,
2013-04-25 15:02:00,66.2,17.1,30.07,East,90,2.6,0.0,15,0.00,CLR,,0.00,WeatherDisplay:10.37,2013-04-25 19:02:00,
2013-04-25 15:03:00,66.0,17.0,30.07,WSW,248,4.6,4.6,15,0.00,CLR,,0.00,WeatherDisplay:10.37,2013-04-25 19:03:00,
2013-04-25 15:04:00,65.7,16.7,30.07,WNW,292,5.8,5.8,15,0.00,CLR,,0.00,WeatherDisplay:10.37,2013-04-25 19:04:00,
2013-04-25 15:06:00,66.2,17.1,30.07,WNW,292,2.3,2.3,15,0.00,CLR,,0.00,WeatherDisplay:10.37,2013-04-25 19:06:00,
2013-04-25 15:07:00,65.8,16.8,30.07,West,270,6.0,6.0,15,0.00,CLR,,0.00,WeatherDisplay:10.37,2013-04-25 19:07:00,
2013-04-25 15:08:00,65.7,16.7,30.07,NNW,338,6.9,6.9,15,0.00,CLR,,0.00,WeatherDisplay:10.37,2013-04-25 19:08:00,
2013-04-25 15:09:00,65.8,16.8,30.04,NW,315,3.5,3.5,15,0.00,CLR,,0.00,WeatherDisplay:10.37,2013-04-25 19:09:00,
2013-04-25 15:11:00,65.5,16.5,30.04,WNW,292,10.4,10.4,15,0.00,CLR,,0.00,WeatherDisplay:10.37,2013-04-25 19:11:00,
2013-04-25 15:12:00,65.7,16.7,30.04,WNW,292,1.1,0.0,15,0.00,CLR,,0.00,WeatherDisplay:10.37,2013-04-25 19:12:00,
2013-04-25 15:13:00,64.8,16.0,30.04,WSW,248,3.5,3.5,15,0.00,CLR,,0.00,WeatherDisplay:10.37,2013-04-25 19:13:00,
2013-04-25 15:14:00,64.8,16.0,30.04,NW,315,3.5,3.5,15,0.00,CLR,,0.00,WeatherDisplay:10.37,2013-04-25 19:14:00,
2013-04-25 15:16:00,61.7,15.0,30.04,WNW,292,1.1,0.0,16,0.00,CLR,,0.00,WeatherDisplay:10.37,2013-04-25 19:16:00,
2013-04-25 15:17:00,61.7,15.0,30.04,SSW,202,0.0,0.0,16,0.00,CLR,,0.00,WeatherDisplay:10.37,2013-04-25 19:17:00,
2013-04-25 15:18:00,61.3,14.7,30.04,South,180,1.1,1.1,16,0.00,CLR,,0.00,WeatherDisplay:10.37,2013-04-25 19:18:00,
2013-04-25 15:19:00,61.3,14.7,30.04,SSE,158,1.1,0.0,16,0.00,CLR,,0.00,WeatherDisplay:10.37,2013-04-25 19:19:00,
2013-04-25 15:21:00,62.4,15.6,30.04,South,180,1.1,0.0,16,0.00,CLR,,0.00,WeatherDisplay:10.37,2013-04-25 19:21:00,
2013-04-25 15:22:00,62.8,15.9,30.04,SSE,158,2.3,2.3,16,0.00,CLR,,0.00,WeatherDisplay:10.37,2013-04-25 19:22:00,
2013-04-25 15:23:00,62.2,15.4,30.01,SSE,158,2.3,0.0,16,0.00,CLR,,0.00,WeatherDisplay:10.37,2013-04-25 19:23:00,
2013-04-25 15:24:00,62.2,15.4,30.01,South,180,2.3,0.0,16,0.00,CLR,,0.00,WeatherDisplay:10.37,2013-04-25 19:24:00,
2013-04-25 15:26:00,61.7,15.0,30.01,West,270,0.0,0.0,16,0.00,CLR,,0.00,WeatherDisplay:10.37,2013-04-25 19:26:00,
2013-04-25 15:27:00,62.4,15.6,30.01,West,270,0.0,0.0,16,0.00,CLR,,0.00,WeatherDisplay:10.37,2013-04-25 19:27:00,
2013-04-25 15:28:00,63.1,16.2,30.01,NW,315,3.5,3.5,16,0.00,CLR,,0.00,WeatherDisplay:10.37,2013-04-25 19:28:00,
2013-04-25 15:29:00,64.2,17.0,30.01,NW,315,4.6,4.6,16,0.00,CLR,,0.00,WeatherDisplay:10.37,2013-04-25 19:29:00,
2013-04-25 15:31:00,66.2,17.1,30.01,ENE,68,2.3,0.0,15,0.00,CLR,,0.00,WeatherDisplay:10.37,2013-04-25 19:31:00,
2013-04-25 15:32:00,66.2,17.1,30.01,ENE,68,2.6,0.0,15,0.00,CLR,,0.00,WeatherDisplay:10.37,2013-04-25 19:32:00,
2013-04-25 15:33:00,66.2,17.1,30.01,NNE,22,3.5,3.5,15,0.00,CLR,,0.00,WeatherDisplay:10.37,2013-04-25 19:33:00,
2013-04-25 15:34:00,65.7,16.7,30.01,North,0,4.3,4.3,15,0.00,CLR,,0.00,WeatherDisplay:10.37,2013-04-25 19:34:00,
2013-04-25 15:37:00,66.0,21.2,30.01,East,90,4.6,4.6,18,0.00,CLR,,0.00,WeatherDisplay:10.37,2013-04-25 19:37:00,
2013-04-25 15:38:00,64.9,20.4,30.04,North,0,4.0,4.0,18,0.00,CLR,,0.00,WeatherDisplay:10.37,2013-04-25 19:38:00,
2013-04-25 15:39:00,63.0,18.7,30.04,East,90,5.8,5.8,18,0.00,CLR,,0.00,WeatherDisplay:10.37,2013-04-25 19:39:00,
2013-04-25 15:42:00,64.0,19.6,30.04,NW,315,4.6,4.6,18,0.00,CLR,,0.00,WeatherDisplay:10.37,2013-04-25 19:42:00,
2013-04-25 15:43:00,64.0,16.9,30.04,NNW,338,4.6,4.6,16,0.00,CLR,,0.00,WeatherDisplay:10.37,2013-04-25 19:43:00,
2013-04-25 15:44:00,63.9,16.7,30.04,ENE,68,3.5,3.5,16,0.00,CLR,,0.00,WeatherDisplay:10.37,2013-04-25 19:44:00,
2013-04-25 15:45:00,64.6,15.8,30.04,ESE,112,2.9,2.9,15,0.00,CLR,,0.00,WeatherDisplay:10.37,2013-04-25 19:45:00,
2013-04-25 15:47:00,64.8,16.0,30.04,ENE,68,1.4,1.4,15,0.00,CLR,,0.00,WeatherDisplay:10.37,2013-04-25 19:47:00,
2013-04-25 15:48:00,64.8,16.0,30.04,East,90,2.6,2.6,15,0.00,CLR,,0.00,WeatherDisplay:10.37,2013-04-25 19:48:00,
2013-04-25 15:49:00,64.8,16.0,30.04,ESE,112,4.6,4.6,15,0.00,CLR,,0.00,WeatherDisplay:10.37,2013-04-25 19:49:00,
2013-04-25 15:50:00,64.6,15.8,30.04,West,270,5.8,5.8,15,0.00,CLR,,0.00,WeatherDisplay:10.37,2013-04-25 19:50:00,
2013-04-25 15:53:00,65.8,16.8,30.04,ESE,112,2.6,2.6,15,0.00,CLR,,0.00,WeatherDisplay:10.37,2013-04-25 19:53:00,
2013-04-25 15:54:00,65.8,16.8,30.01,WSW,248,4.6,4.6,15,0.00,CLR,,0.00,WeatherDisplay:10.37,2013-04-25 19:54:00,
2013-04-25 15:55:00,65.1,16.3,30.01,SW,225,5.8,5.8,15,0.00,CLR,,0.00,WeatherDisplay:10.37,2013-04-25 19:55:00,
2013-04-25 15:58:00,65.3,16.4,30.01,North,0,5.8,5.8,15,0.00,CLR,,0.00,WeatherDisplay:10.37,2013-04-25 19:58:00,
2013-04-25 15:59:00,65.1,16.3,30.01,NE,45,5.8,5.8,15,0.00,CLR,,0.00,WeatherDisplay:10.37,2013-04-25 19:59:00,
2013-04-25 16:00:00,66.0,17.0,30.01,North,0,3.5,3.5,15,0.00,CLR,,0.00,WeatherDisplay:10.37,2013-04-25 20:00:00,
2013-04-25 16:03:00,64.8,16.0,30.01,ESE,112,4.6,4.6,15,0.00,CLR,,0.00,WeatherDisplay:10.37,2013-04-25 20:03:00,
2013-04-25 16:04:00,63.7,16.6,30.01,ESE,112,3.8,3.8,16,0.00,CLR,,0.00,WeatherDisplay:10.37,2013-04-25 20:04:00,
2013-04-25 16:05:00,63.5,16.4,30.01,NNW,338,3.5,3.5,16,0.00,CLR,,0.00,WeatherDisplay:10.37,2013-04-25 20:05:00,
2013-04-25 16:08:00,62.1,19.3,30.01,NNE,22,1.1,0.0,19,0.00,CLR,,0.00,WeatherDisplay:10.37,2013-04-25 20:08:00,
2013-04-25 16:09:00,62.1,19.3,30.01,NNE,22,0.0,0.0,19,0.00,CLR,,0.00,WeatherDisplay:10.37,2013-04-25 20:09:00,
2013-04-25 16:10:00,61.7,19.0,30.01,East,90,0.0,0.0,19,0.00,CLR,,0.00,WeatherDisplay:10.37,2013-04-25 20:10:00,
2013-04-25 16:13:00,61.0,18.4,30.01,ESE,112,3.3,3.3,19,0.00,CLR,,0.00,WeatherDisplay:10.37,2013-04-25 20:13:00,
2013-04-25 16:14:00,61.0,18.4,30.01,ESE,112,3.6,3.6,19,0.00,CLR,,0.00,WeatherDisplay:10.37,2013-04-25 20:14:00,
2013-04-25 16:15:00,58.8,20.0,30.01,ESE,112,3.5,3.5,22,0.00,CLR,,0.00,WeatherDisplay:10.37,2013-04-25 20:15:00,
2013-04-25 16:16:00,58.8,20.0,30.01,ESE,112,4.6,4.6,22,0.00,CLR,,0.00,WeatherDisplay:10.37,2013-04-25 20:16:00,
2013-04-25 16:19:00,59.5,22.7,30.01,ESE,112,4.6,4.6,24,0.00,CLR,,0.00,WeatherDisplay:10.37,2013-04-25 20:19:00,
2013-04-25 16:21:00,59.7,22.8,30.01,ESE,112,8.1,8.1,24,0.00,CLR,,0.00,WeatherDisplay:10.37,2013-04-25 20:21:00,
2013-04-25 16:24:00,57.9,22.3,30.01,East,90,4.6,4.6,25,0.00,CLR,,0.00,WeatherDisplay:10.37,2013-04-25 20:24:00,
2013-04-25 16:25:00,57.9,22.3,30.01,ESE,112,4.6,4.6,25,0.00,CLR,,0.00,WeatherDisplay:10.37,2013-04-25 20:25:00,
2013-04-25 16:26:00,57.9,22.3,30.01,East,90,5.8,5.8,25,0.00,CLR,,0.00,WeatherDisplay:10.37,2013-04-25 20:26:00,
2013-04-25 16:29:00,56.3,21.8,30.01,SSE,158,4.6,4.6,26,0.00,CLR,,0.00,WeatherDisplay:10.37,2013-04-25 20:29:00,
2013-04-25 16:30:00,55.9,22.4,30.01,ESE,112,4.6,4.6,27,0.00,CLR,,0.00,WeatherDisplay:10.37,2013-04-25 20:30:00,
2013-04-25 16:31:00,55.9,21.5,30.01,ESE,112,4.6,4.6,26,0.00,CLR,,0.00,WeatherDisplay:10.37,2013-04-25 20:31:00,
2013-04-25 16:34:00,55.8,21.3,30.01,ESE,112,0.0,0.0,26,0.00,CLR,,0.00,WeatherDisplay:10.37,2013-04-25 20:34:00,
2013-04-25 16:35:00,55.8,21.3,30.01,ESE,112,8.1,8.1,26,0.00,CLR,,0.00,WeatherDisplay:10.37,2013-04-25 20:35:00,
2013-04-25 16:36:00,55.8,21.3,30.01,ESE,112,5.8,5.8,26,0.00,CLR,,0.00,WeatherDisplay:10.37,2013-04-25 20:36:00,
2013-04-25 16:39:00,54.3,21.0,30.04,ESE,112,4.6,4.6,27,0.00,CLR,,0.00,WeatherDisplay:10.37,2013-04-25 20:39:00,
2013-04-25 16:40:00,53.8,20.5,30.04,East,90,4.6,4.6,27,0.00,CLR,,0.00,WeatherDisplay:10.37,2013-04-25 20:40:00,
2013-04-25 16:41:00,53.8,20.5,30.04,ESE,112,4.7,4.7,27,0.00,CLR,,0.00,WeatherDisplay:10.37,2013-04-25 20:41:00,
2013-04-25 16:44:00,54.0,21.6,30.04,ESE,112,4.6,4.6,28,0.00,CLR,,0.00,WeatherDisplay:10.37,2013-04-25 20:44:00,
2013-04-25 16:45:00,54.0,21.6,30.04,SSE,158,3.5,3.5,28,0.00,CLR,,0.00,WeatherDisplay:10.37,2013-04-25 20:45:00,
2013-04-25 16:46:00,54.3,21.9,30.04,ESE,112,4.6,4.6,28,0.00,CLR,,0.00,WeatherDisplay:10.37,2013-04-25 20:46:00,
2013-04-25 16:47:00,54.3,21.9,30.04,ESE,112,6.9,6.9,28,0.00,CLR,,0.00,WeatherDisplay:10.37,2013-04-25 20:47:00,
2013-04-25 16:49:00,54.7,22.2,30.04,ESE,112,4.6,4.6,28,0.00,CLR,,0.00,WeatherDisplay:10.37,2013-04-25 20:49:00,
2013-04-25 16:50:00,55.0,22.5,30.04,ESE,112,4.6,4.6,28,0.00,CLR,,0.00,WeatherDisplay:10.37,2013-04-25 20:50:00,
2013-04-25 16:51:00,55.0,22.5,30.04,ESE,112,4.6,4.6,28,0.00,CLR,,0.00,WeatherDisplay:10.37,2013-04-25 20:51:00,
2013-04-25 16:52:00,54.7,22.2,30.04,East,90,6.4,6.4,28,0.00,CLR,,0.00,WeatherDisplay:10.37,2013-04-25 20:52:00,
2013-04-25 16:54:00,54.5,22.0,30.01,ESE,112,5.9,5.9,28,0.00,CLR,,0.00,WeatherDisplay:10.37,2013-04-25 20:54:00,
2013-04-25 16:55:00,54.7,21.3,30.01,ESE,112,8.1,8.1,27,0.00,CLR,,0.00,WeatherDisplay:10.37,2013-04-25 20:55:00,
2013-04-25 16:56:00,55.0,22.5,30.01,ESE,112,5.8,5.8,28,0.00,CLR,,0.00,WeatherDisplay:10.37,2013-04-25 20:56:00,
2013-04-25 16:57:00,55.0,22.5,30.01,SE,135,5.8,5.8,28,0.00,CLR,,0.00,WeatherDisplay:10.37,2013-04-25 20:57:00,
2013-04-25 17:00:00,55.6,22.1,30.01,ESE,112,7.4,7.4,27,0.00,CLR,,0.00,WeatherDisplay:10.37,2013-04-25 21:00:00,
2013-04-25 17:01:00,55.6,22.1,30.01,ESE,112,7.1,7.1,27,0.00,CLR,,0.00,WeatherDisplay:10.37,2013-04-25 21:01:00,
2013-04-25 17:02:00,55.0,22.5,30.01,East,90,8.1,8.1,28,0.00,CLR,,0.00,WeatherDisplay:10.37,2013-04-25 21:02:00,
2013-04-25 17:05:00,55.0,21.6,30.01,SSE,158,9.2,9.2,27,0.00,CLR,,0.00,WeatherDisplay:10.37,2013-04-25 21:05:00,
2013-04-25 17:06:00,54.9,21.5,30.01,ESE,112,8.1,8.1,27,0.00,CLR,,0.00,WeatherDisplay:10.37,2013-04-25 21:06:00,
2013-04-25 17:07:00,54.5,21.2,30.01,ESE,112,8.1,8.1,27,0.00,CLR,,0.00,WeatherDisplay:10.37,2013-04-25 21:07:00,
2013-04-25 17:10:00,54.7,21.3,30.04,ESE,112,6.7,6.7,27,0.00,CLR,,0.00,WeatherDisplay:10.37,2013-04-25 21:10:00,
2013-04-25 17:11:00,55.0,21.6,30.04,SSE,158,6.9,6.9,27,0.00,CLR,,0.00,WeatherDisplay:10.37,2013-04-25 21:11:00,
2013-04-25 17:12:00,55.2,21.8,30.04,SE,135,9.2,9.2,27,0.00,CLR,,0.00,WeatherDisplay:10.37,2013-04-25 21:12:00,
2013-04-25 17:13:00,55.2,21.8,30.04,ESE,112,10.4,10.4,27,0.00,CLR,,0.00,WeatherDisplay:10.37,2013-04-25 21:13:00,
2013-04-25 17:15:00,54.7,21.3,30.04,SE,135,5.8,5.8,27,0.00,CLR,,0.00,WeatherDisplay:10.37,2013-04-25 21:15:00,
2013-04-25 17:17:00,53.8,20.5,30.04,SSE,158,8.1,8.1,27,0.00,CLR,,0.00,WeatherDisplay:10.37,2013-04-25 21:17:00,
2013-04-25 17:18:00,53.4,21.1,30.04,East,90,9.2,9.2,28,0.00,CLR,,0.00,WeatherDisplay:10.37,2013-04-25 21:18:00,
2013-04-25 17:20:00,52.9,20.6,30.04,ESE,112,8.1,8.1,28,0.00,CLR,,0.00,WeatherDisplay:10.37,2013-04-25 21:20:00,
2013-04-25 17:22:00,52.5,20.3,30.04,ESE,112,8.1,8.1,28,0.00,CLR,,0.00,WeatherDisplay:10.37,2013-04-25 21:22:00,
2013-04-25 17:23:00,52.0,19.8,30.04,ESE,112,5.8,5.8,28,0.00,CLR,,0.00,WeatherDisplay:10.37,2013-04-25 21:23:00,
2013-04-25 17:24:00,52.0,19.8,30.04,ENE,68,6.9,6.9,28,0.00,CLR,,0.00,WeatherDisplay:10.37,2013-04-25 21:24:00,
2013-04-25 17:25:00,51.8,20.5,30.04,ENE,68,6.9,6.9,29,0.00,CLR,,0.00,WeatherDisplay:10.37,2013-04-25 21:25:00,
2013-04-25 17:27:00,51.4,21.0,30.04,ESE,112,5.4,5.4,30,0.00,CLR,,0.00,WeatherDisplay:10.37,2013-04-25 21:27:00,
2013-04-25 17:28:00,51.3,21.6,30.04,ESE,112,6.4,6.4,31,0.00,CLR,,0.00,WeatherDisplay:10.37,2013-04-25 21:28:00,
2013-04-25 17:29:00,51.1,21.5,30.04,East,90,5.8,5.8,31,0.00,CLR,,0.00,WeatherDisplay:10.37,2013-04-25 21:29:00,
2013-04-25 17:30:00,51.1,21.5,30.04,East,90,5.8,5.8,31,0.00,CLR,,0.00,WeatherDisplay:10.37,2013-04-25 21:30:00,
2013-04-25 17:32:00,50.7,21.9,30.04,ESE,112,6.9,6.9,32,0.00,CLR,,0.00,WeatherDisplay:10.37,2013-04-25 21:32:00,
2013-04-25 17:33:00,50.7,22.6,30.04,ESE,112,4.6,4.6,33,0.00,CLR,,0.00,WeatherDisplay:10.37,2013-04-25 21:33:00,
2013-04-25 17:34:00,50.7,21.9,30.04,ESE,112,5.9,5.9,32,0.00,CLR,,0.00,WeatherDisplay:10.37,2013-04-25 21:34:00,
2013-04-25 17:35:00,50.5,21.7,30.04,ESE,112,5.8,5.8,32,0.00,CLR,,0.00,WeatherDisplay:10.37,2013-04-25 21:35:00,
2013-04-25 17:37:00,50.2,21.4,30.04,SSE,158,5.8,5.8,32,0.00,CLR,,0.00,WeatherDisplay:10.37,2013-04-25 21:37:00,
2013-04-25 17:38:00,50.2,21.4,30.04,SE,135,5.8,5.8,32,0.00,CLR,,0.00,WeatherDisplay:10.37,2013-04-25 21:38:00,
2013-04-25 17:40:00,50.4,23.0,30.04,East,90,5.8,5.8,34,0.00,CLR,,0.00,WeatherDisplay:10.37,2013-04-25 21:40:00,
2013-04-25 17:42:00,50.4,23.0,30.04,ESE,112,5.8,5.8,34,0.00,CLR,,0.00,WeatherDisplay:10.37,2013-04-25 21:42:00,
2013-04-25 17:43:00,50.2,22.9,30.04,ESE,112,5.8,5.8,34,0.00,CLR,,0.00,WeatherDisplay:10.37,2013-04-25 21:43:00,
2013-04-25 17:45:00,50.0,22.0,30.04,East,90,9.2,9.2,33,0.00,CLR,,0.00,WeatherDisplay:10.37,2013-04-25 21:45:00,
2013-04-25 17:46:00,50.2,22.9,30.04,ESE,112,5.8,5.8,34,0.00,CLR,,0.00,WeatherDisplay:10.37,2013-04-25 21:46:00,
2013-04-25 17:47:00,50.2,22.1,30.04,SSE,158,5.6,5.6,33,0.00,CLR,,0.00,WeatherDisplay:10.37,2013-04-25 21:47:00,
2013-04-25 17:48:00,50.0,22.0,30.04,SSE,158,5.9,5.9,33,0.00,CLR,,0.00,WeatherDisplay:10.37,2013-04-25 21:48:00,
2013-04-25 17:50:00,50.0,22.7,30.04,South,180,5.8,5.8,34,0.00,CLR,,0.00,WeatherDisplay:10.37,2013-04-25 21:50:00,
2013-04-25 17:51:00,50.2,22.9,30.04,ESE,112,4.5,4.5,34,0.00,CLR,,0.00,WeatherDisplay:10.37,2013-04-25 21:51:00,
2013-04-25 17:53:00,50.2,22.1,30.04,SE,135,4.6,4.6,33,0.00,CLR,,0.00,WeatherDisplay:10.37,2013-04-25 21:53:00,
2013-04-25 17:56:00,50.2,21.4,30.04,East,90,8.1,8.1,32,0.00,CLR,,0.00,WeatherDisplay:10.37,2013-04-25 21:56:00,
2013-04-25 17:57:00,50.0,21.3,30.04,East,90,6.0,6.0,32,0.00,CLR,,0.00,WeatherDisplay:10.37,2013-04-25 21:57:00,
2013-04-25 17:58:00,50.0,21.3,30.04,East,90,5.8,5.8,32,0.00,CLR,,0.00,WeatherDisplay:10.37,2013-04-25 21:58:00,
2013-04-25 17:59:00,49.8,22.5,30.04,ESE,112,5.8,5.8,34,0.00,CLR,,0.00,WeatherDisplay:10.37,2013-04-25 21:59:00,
2013-04-25 18:01:00,49.8,22.5,30.04,NNE,22,3.5,3.5,34,0.00,CLR,,0.00,WeatherDisplay:10.37,2013-04-25 22:01:00,
2013-04-25 18:02:00,49.8,22.5,30.04,ESE,112,2.3,2.3,34,0.00,CLR,,0.00,WeatherDisplay:10.37,2013-04-25 22:02:00,
2013-04-25 18:03:00,50.2,24.2,30.04,ESE,112,2.3,2.4,36,0.00,CLR,,0.00,WeatherDisplay:10.37,2013-04-25 22:03:00,
2013-04-25 18:04:00,50.2,23.5,30.04,ESE,112,3.6,3.6,35,0.00,CLR,,0.00,WeatherDisplay:10.37,2013-04-25 22:04:00,
2013-04-25 18:06:00,49.8,22.5,30.04,ESE,112,4.6,4.6,34,0.00,CLR,,0.00,WeatherDisplay:10.37,2013-04-25 22:06:00,
2013-04-25 18:08:00,49.6,23.1,30.04,ESE,112,4.6,4.6,35,0.00,CLR,,0.00,WeatherDisplay:10.37,2013-04-25 22:08:00,
2013-04-25 18:09:00,49.6,23.1,30.04,ESE,112,4.7,4.7,35,0.00,CLR,,0.00,WeatherDisplay:10.37,2013-04-25 22:09:00,
2013-04-25 18:11:00,49.3,23.4,30.04,ESE,112,3.6,3.6,36,0.00,CLR,,0.00,WeatherDisplay:10.37,2013-04-25 22:11:00,
2013-04-25 18:13:00,49.1,23.3,30.04,SSE,158,4.6,4.6,36,0.00,CLR,,0.00,WeatherDisplay:10.37,2013-04-25 22:13:00,
2013-04-25 18:14:00,49.1,23.9,30.04,SE,135,5.8,5.8,37,0.00,CLR,,0.00,WeatherDisplay:10.37,2013-04-25 22:14:00,
2013-04-25 18:16:00,48.9,23.8,30.04,ESE,112,5.4,5.4,37,0.00,CLR,,0.00,WeatherDisplay:10.37,2013-04-25 22:16:00,
2013-04-25 18:18:00,48.9,23.8,30.04,SSE,158,3.5,3.5,37,0.00,CLR,,0.00,WeatherDisplay:10.37,2013-04-25 22:18:00,
2013-04-25 18:19:00,48.7,23.6,30.04,SSE,158,4.6,4.6,37,0.00,CLR,,0.00,WeatherDisplay:10.37,2013-04-25 22:19:00,
2013-04-25 18:20:00,48.7,23.6,30.04,SE,135,3.5,3.5,37,0.00,CLR,,0.00,WeatherDisplay:10.37,2013-04-25 22:20:00,
2013-04-25 18:21:00,48.7,23.6,30.04,ESE,112,2.9,2.9,37,0.00,CLR,,0.00,WeatherDisplay:10.37,2013-04-25 22:21:00,
2013-04-25 18:23:00,48.7,23.6,30.04,SSE,158,2.3,2.3,37,0.00,CLR,,0.00,WeatherDisplay:10.37,2013-04-25 22:23:00,
2013-04-25 18:24:00,48.7,23.6,30.04,SSE,158,1.1,1.1,37,0.00,CLR,,0.00,WeatherDisplay:10.37,2013-04-25 22:24:00,
2013-04-25 18:25:00,48.6,23.4,30.04,East,90,3.5,3.5,37,0.00,CLR,,0.00,WeatherDisplay:10.37,2013-04-25 22:25:00,
2013-04-25 18:26:00,48.4,23.3,30.04,SE,135,6.9,6.9,37,0.00,CLR,,0.00,WeatherDisplay:10.37,2013-04-25 22:26:00,
2013-04-25 18:29:00,48.2,23.1,30.04,East,90,4.7,4.7,37,0.00,CLR,,0.00,WeatherDisplay:10.37,2013-04-25 22:29:00,
2013-04-25 18:30:00,48.2,23.1,30.04,ESE,112,4.6,4.6,37,0.00,CLR,,0.00,WeatherDisplay:10.37,2013-04-25 22:30:00,
2013-04-25 18:32:00,47.8,22.8,30.04,SSE,158,3.5,3.5,37,0.00,CLR,,0.00,WeatherDisplay:10.37,2013-04-25 22:32:00,
2013-04-25 18:34:00,48.0,23.6,30.04,ESE,112,2.9,0.0,38,0.00,CLR,,0.00,WeatherDisplay:10.37,2013-04-25 22:34:00,
2013-04-25 18:35:00,47.8,23.4,30.04,ESE,112,4.9,4.9,38,0.00,CLR,,0.00,WeatherDisplay:10.37,2013-04-25 22:35:00,
2013-04-25 18:37:00,47.8,23.4,30.04,SSE,158,4.6,4.6,38,0.00,CLR,,0.00,WeatherDisplay:10.37,2013-04-25 22:37:00,
2013-04-25 18:39:00,47.8,23.4,30.01,ESE,112,2.3,2.3,38,0.00,CLR,,0.00,WeatherDisplay:10.37,2013-04-25 22:39:00,
2013-04-25 18:40:00,47.8,23.4,30.01,SE,135,2.3,2.4,38,0.00,CLR,,0.00,WeatherDisplay:10.37,2013-04-25 22:40:00,
2013-04-25 18:41:00,47.8,23.4,30.01,SSE,158,2.3,2.4,38,0.00,CLR,,0.00,WeatherDisplay:10.37,2013-04-25 22:41:00,
2013-04-25 18:42:00,47.7,22.6,30.01,SE,135,4.6,4.6,37,0.00,CLR,,0.00,WeatherDisplay:10.37,2013-04-25 22:42:00,
2013-04-25 18:44:00,47.7,22.6,30.01,ESE,112,4.0,4.0,37,0.00,CLR,,0.00,WeatherDisplay:10.37,2013-04-25 22:44:00,
2013-04-25 18:45:00,47.7,22.6,30.01,SSE,158,5.8,5.8,37,0.00,CLR,,0.00,WeatherDisplay:10.37,2013-04-25 22:45:00,
2013-04-25 18:46:00,47.5,22.5,30.01,SE,135,5.8,5.8,37,0.00,CLR,,0.00,WeatherDisplay:10.37,2013-04-25 22:46:00,
2013-04-25 18:47:00,47.7,22.6,30.01,SE,135,4.6,4.6,37,0.00,CLR,,0.00,WeatherDisplay:10.37,2013-04-25 22:47:00,
2013-04-25 18:49:00,47.7,23.3,30.01,SSE,158,1.1,1.1,38,0.00,CLR,,0.00,WeatherDisplay:10.37,2013-04-25 22:49:00,
2013-04-25 18:50:00,47.7,23.3,30.01,SSE,158,2.6,0.0,38,0.00,CLR,,0.00,WeatherDisplay:10.37,2013-04-25 22:50:00,
2013-04-25 18:51:00,47.7,23.3,30.01,SSW,202,2.3,2.3,38,0.00,CLR,,0.00,WeatherDisplay:10.37,2013-04-25 22:51:00,
2013-04-25 18:52:00,47.7,23.3,30.01,South,180,1.1,1.1,38,0.00,CLR,,0.00,WeatherDisplay:10.37,2013-04-25 22:52:00,
2013-04-25 18:54:00,47.7,23.3,30.04,SSE,158,2.3,2.3,38,0.00,CLR,,0.00,WeatherDisplay:10.37,2013-04-25 22:54:00,
2013-04-25 18:55:00,47.7,23.3,30.04,SSE,158,2.3,2.3,38,0.00,CLR,,0.00,WeatherDisplay:10.37,2013-04-25 22:55:00,
2013-04-25 18:56:00,47.7,22.6,30.04,SSE,158,3.5,3.5,37,0.00,CLR,,0.00,WeatherDisplay:10.37,2013-04-25 22:56:00,
2013-04-25 18:57:00,47.7,22.6,30.04,SE,135,2.3,2.3,37,0.00,CLR,,0.00,WeatherDisplay:10.37,2013-04-25 22:57:00,
2013-04-25 19:00:00,47.7,23.3,30.04,SSE,158,3.5,3.5,38,0.00,CLR,,0.00,WeatherDisplay:10.37,2013-04-25 23:00:00,
2013-04-25 19:01:00,47.7,23.3,30.04,SE,135,2.3,0.0,38,0.00,CLR,,0.00,WeatherDisplay:10.37,2013-04-25 23:01:00,
2013-04-25 19:02:00,47.7,23.3,30.04,East,90,2.9,0.0,38,0.00,CLR,,0.00,WeatherDisplay:10.37,2013-04-25 23:02:00,
2013-04-25 19:05:00,47.8,23.4,30.04,ESE,112,3.5,3.5,38,0.00,CLR,,0.00,WeatherDisplay:10.37,2013-04-25 23:05:00,
2013-04-25 19:07:00,47.8,23.4,30.04,ESE,112,1.1,0.0,38,0.00,CLR,,0.00,WeatherDisplay:10.37,2013-04-25 23:07:00,
2013-04-25 19:10:00,47.7,23.3,30.04,SSE,158,3.5,3.5,38,0.00,CLR,,0.00,WeatherDisplay:10.37,2013-04-25 23:10:00,
2013-04-25 19:11:00,47.7,23.3,30.04,SSE,158,4.6,4.6,38,0.00,CLR,,0.00,WeatherDisplay:10.37,2013-04-25 23:11:00,
2013-04-25 19:12:00,47.7,23.3,30.04,SSW,202,2.6,2.6,38,0.00,CLR,,0.00,WeatherDisplay:10.37,2013-04-25 23:12:00,
2013-04-25 19:15:00,47.5,24.3,30.04,SSE,158,3.6,3.6,40,0.00,CLR,,0.00,WeatherDisplay:10.37,2013-04-25 23:15:00,
2013-04-25 19:16:00,47.5,24.3,30.04,SSE,158,3.5,3.5,40,0.00,CLR,,0.00,WeatherDisplay:10.37,2013-04-25 23:16:00,
2013-04-25 19:17:00,47.3,24.8,30.04,ESE,112,2.9,2.9,41,0.00,CLR,,0.00,WeatherDisplay:10.37,2013-04-25 23:17:00,
2013-04-25 19:18:00,47.3,23.6,30.04,ESE,112,4.6,4.6,39,0.00,CLR,,0.00,WeatherDisplay:10.37,2013-04-25 23:18:00,
2013-04-25 19:20:00,47.3,23.6,30.04,WSW,248,4.6,4.6,39,0.00,CLR,,0.00,WeatherDisplay:10.37,2013-04-25 23:20:00,
2013-04-25 19:21:00,47.3,23.6,30.04,SSW,202,3.5,3.5,39,0.00,CLR,,0.00,WeatherDisplay:10.37,2013-04-25 23:21:00,
2013-04-25 19:22:00,47.5,23.7,30.04,SSE,158,0.0,0.0,39,0.00,CLR,,0.00,WeatherDisplay:10.37,2013-04-25 23:22:00,
2013-04-25 19:23:00,47.5,23.7,30.04,SSE,158,0.0,0.0,39,0.00,CLR,,0.00,WeatherDisplay:10.37,2013-04-25 23:23:00,
2013-04-25 19:25:00,47.5,24.3,30.04,WNW,292,0.0,0.0,40,0.00,CLR,,0.00,WeatherDisplay:10.37,2013-04-25 23:25:00,
2013-04-25 19:26:00,47.5,24.3,30.04,WSW,248,0.0,0.0,40,0.00,CLR,,0.00,WeatherDisplay:10.37,2013-04-25 23:26:00,
2013-04-25 19:27:00,47.5,23.7,30.04,NNW,338,0.0,0.0,39,0.00,CLR,,0.00,WeatherDisplay:10.37,2013-04-25 23:27:00,
2013-04-25 19:28:00,47.5,24.3,30.04,NNW,338,0.0,0.0,40,0.00,CLR,,0.00,WeatherDisplay:10.37,2013-04-25 23:28:00,
2013-04-25 19:31:00,47.5,24.3,30.04,ESE,112,2.6,2.6,40,0.00,CLR,,0.00,WeatherDisplay:10.37,2013-04-25 23:31:00,
2013-04-25 19:32:00,47.5,23.7,30.04,ESE,112,3.5,3.5,39,0.00,CLR,,0.00,WeatherDisplay:10.37,2013-04-25 23:32:00,
2013-04-25 19:33:00,47.5,24.3,30.04,ESE,112,4.0,4.0,40,0.00,CLR,,0.00,WeatherDisplay:10.37,2013-04-25 23:33:00,
2013-04-25 19:36:00,47.7,23.9,30.04,ESE,112,3.1,3.1,39,0.00,CLR,,0.00,WeatherDisplay:10.37,2013-04-25 23:36:00,
2013-04-25 19:38:00,47.7,23.9,30.04,ESE,112,0.0,0.0,39,0.00,CLR,,0.00,WeatherDisplay:10.37,2013-04-25 23:38:00,
2013-04-25 19:39:00,47.7,23.9,30.07,ESE,112,0.0,0.0,39,0.00,CLR,,0.00,WeatherDisplay:10.37,2013-04-25 23:39:00,
2013-04-25 19:41:00,47.7,23.9,30.07,ESE,112,2.3,0.0,39,0.00,CLR,,0.00,WeatherDisplay:10.37,2013-04-25 23:41:00,
2013-04-25 19:42:00,47.7,23.9,30.07,ESE,112,0.0,0.0,39,0.00,CLR,,0.00,WeatherDisplay:10.37,2013-04-25 23:42:00,
2013-04-25 19:43:00,47.7,23.9,30.07,ESE,112,0.0,0.0,39,0.00,CLR,,0.00,WeatherDisplay:10.37,2013-04-25 23:43:00,
2013-04-25 19:44:00,47.7,23.9,30.07,ESE,112,0.0,0.0,39,0.00,CLR,,0.00,WeatherDisplay:10.37,2013-04-25 23:44:00,
2013-04-25 19:46:00,47.8,24.0,30.07,East,90,0.0,0.0,39,0.00,CLR,,0.00,WeatherDisplay:10.37,2013-04-25 23:46:00,
2013-04-25 19:47:00,47.8,24.0,30.07,East,90,0.0,0.0,39,0.00,CLR,,0.00,WeatherDisplay:10.37,2013-04-25 23:47:00,
2013-04-25 19:48:00,47.8,24.0,30.07,WNW,292,0.0,0.0,39,0.00,CLR,,0.00,WeatherDisplay:10.37,2013-04-25 23:48:00,
2013-04-25 19:49:00,47.8,24.0,30.07,NNW,338,1.1,0.0,39,0.00,CLR,,0.00,WeatherDisplay:10.37,2013-04-25 23:49:00,
2013-04-25 19:52:00,47.8,24.0,30.07,North,0,0.0,0.0,39,0.00,CLR,,0.00,WeatherDisplay:10.37,2013-04-25 23:52:00,
2013-04-25 19:53:00,47.8,24.0,30.10,NNW,338,3.6,3.6,39,0.00,CLR,,0.00,WeatherDisplay:10.37,2013-04-25 23:53:00,
2013-04-25 19:55:00,48.0,24.2,30.10,NNW,338,1.1,0.0,39,0.00,CLR,,0.00,WeatherDisplay:10.37,2013-04-25 23:55:00,
2013-04-25 19:57:00,48.0,24.2,30.10,WNW,292,6.9,6.9,39,0.00,CLR,,0.00,WeatherDisplay:10.37,2013-04-25 23:57:00,
2013-04-25 19:58:00,48.2,24.4,30.10,WNW,292,5.8,5.8,39,0.00,CLR,,0.00,WeatherDisplay:10.37,2013-04-25 23:58:00,
2013-04-25 19:59:00,48.2,24.4,30.10,West,270,10.4,10.4,39,0.00,CLR,,0.00,WeatherDisplay:10.37,2013-04-25 23:59:00,
2013-04-25 20:00:00,48.2,24.4,30.10,NNE,22,10.4,10.4,39,0.00,CLR,,0.00,WeatherDisplay:10.37,2013-04-26 00:00:00,
2013-04-25 20:02:00,48.4,25.1,30.10,SW,225,4.6,4.6,40,0.00,CLR,,0.00,WeatherDisplay:10.37,2013-04-26 00:02:00,
2013-04-25 20:03:00,48.4,25.1,30.10,ESE,112,4.6,4.6,40,0.00,CLR,,0.00,WeatherDisplay:10.37,2013-04-26 00:03:00,
2013-04-25 20:04:00,48.4,25.7,30.10,NNE,22,4.6,4.6,41,0.00,CLR,,0.00,WeatherDisplay:10.37,2013-04-26 00:04:00,
2013-04-25 20:05:00,48.4,25.7,30.10,NE,45,3.5,3.5,41,0.00,CLR,,0.00,WeatherDisplay:10.37,2013-04-26 00:05:00,
2013-04-25 20:07:00,48.4,25.7,30.10,NNE,22,8.1,8.1,41,0.00,CLR,,0.00,WeatherDisplay:10.37,2013-04-26 00:07:00,
2013-04-25 20:08:00,48.4,28.0,30.10,NNE,22,6.9,6.9,45,0.00,CLR,,0.00,WeatherDisplay:10.37,2013-04-26 00:08:00,
2013-04-25 20:10:00,48.4,29.1,30.10,NE,45,12.7,12.7,47,0.00,CLR,,0.00,WeatherDisplay:10.37,2013-04-26 00:10:00,
2013-04-25 20:12:00,48.0,29.7,30.10,ESE,112,5.8,5.8,49,0.00,CLR,,0.00,WeatherDisplay:10.37,2013-04-26 00:12:00,
2013-04-25 20:13:00,47.8,29.6,30.10,ENE,68,5.8,5.8,49,0.00,CLR,,0.00,WeatherDisplay:10.37,2013-04-26 00:13:00,
2013-04-25 20:14:00,47.8,29.6,30.10,East,90,3.5,3.5,49,0.00,CLR,,0.00,WeatherDisplay:10.37,2013-04-26 00:14:00,
2013-04-25 20:15:00,47.8,29.6,30.10,NNW,338,3.5,3.5,49,0.00,CLR,,0.00,WeatherDisplay:10.37,2013-04-26 00:15:00,
2013-04-25 20:17:00,47.7,29.9,30.10,NE,45,6.9,6.9,50,0.00,CLR,,0.00,WeatherDisplay:10.37,2013-04-26 00:17:00,
2013-04-25 20:19:00,47.7,30.4,30.10,NNE,22,6.9,6.9,51,0.00,CLR,,0.00,WeatherDisplay:10.37,2013-04-26 00:19:00,
2013-04-25 20:20:00,47.7,30.4,30.10,North,0,6.9,6.9,51,0.00,CLR,,0.00,WeatherDisplay:10.37,2013-04-26 00:20:00,
2013-04-25 20:22:00,47.5,31.2,30.10,NNE,22,2.3,2.3,53,0.00,CLR,,0.00,WeatherDisplay:10.37,2013-04-26 00:22:00,
2013-04-25 20:24:00,47.3,31.5,30.10,NNE,22,4.6,4.6,54,0.00,CLR,,0.00,WeatherDisplay:10.37,2013-04-26 00:24:00,
2013-04-25 20:25:00,47.3,31.5,30.10,NNE,22,4.9,4.9,54,0.00,CLR,,0.00,WeatherDisplay:10.37,2013-04-26 00:25:00,
2013-04-25 20:27:00,47.1,32.2,30.10,ESE,112,2.3,2.3,56,0.00,CLR,,0.00,WeatherDisplay:10.37,2013-04-26 00:27:00,
2013-04-25 20:29:00,47.1,33.1,30.10,NE,45,5.8,5.8,58,0.00,CLR,,0.00,WeatherDisplay:10.37,2013-04-26 00:29:00,
2013-04-25 20:30:00,46.9,33.8,30.10,NNE,22,4.6,4.6,60,0.00,CLR,,0.00,WeatherDisplay:10.37,2013-04-26 00:30:00,
2013-04-25 20:32:00,46.6,33.4,30.10,NNE,22,5.6,5.6,60,0.00,CLR,,0.00,WeatherDisplay:10.37,2013-04-26 00:32:00,
2013-04-25 20:34:00,46.6,33.4,30.10,ENE,68,5.8,5.8,60,0.00,CLR,,0.00,WeatherDisplay:10.37,2013-04-26 00:34:00,
2013-04-25 20:35:00,46.4,34.1,30.10,NNE,22,3.3,0.0,62,0.00,CLR,,0.00,WeatherDisplay:10.37,2013-04-26 00:35:00,
2013-04-25 20:36:00,46.4,34.1,30.10,East,90,4.6,4.6,62,0.00,CLR,,0.00,WeatherDisplay:10.37,2013-04-26 00:36:00,
2013-04-25 20:37:00,46.2,33.9,30.10,ENE,68,3.5,3.5,62,0.00,CLR,,0.00,WeatherDisplay:10.37,2013-04-26 00:37:00,
2013-04-25 20:39:00,46.0,33.7,30.10,ENE,68,6.9,6.9,62,0.00,CLR,,0.00,WeatherDisplay:10.37,2013-04-26 00:39:00,
2013-04-25 20:40:00,45.9,34.0,30.10,NNE,22,6.9,6.9,63,0.00,CLR,,0.00,WeatherDisplay:10.37,2013-04-26 00:40:00,
2013-04-25 20:41:00,45.9,34.0,30.10,NNE,22,4.6,4.6,63,0.00,CLR,,0.00,WeatherDisplay:10.37,2013-04-26 00:41:00,
2013-04-25 20:42:00,45.5,33.6,30.10,SE,135,8.1,8.1,63,0.00,CLR,,0.00,WeatherDisplay:10.37,2013-04-26 00:42:00,
2013-04-25 20:44:00,45.5,33.6,30.10,ESE,112,8.1,8.1,63,0.00,CLR,,0.00,WeatherDisplay:10.37,2013-04-26 00:44:00,
2013-04-25 20:45:00,45.5,34.0,30.10,East,90,2.9,2.9,64,0.00,CLR,,0.00,WeatherDisplay:10.37,2013-04-26 00:45:00,
2013-04-25 20:46:00,45.5,34.0,30.10,NE,45,2.9,2.9,64,0.00,CLR,,0.00,WeatherDisplay:10.37,2013-04-26 00:46:00,
2013-04-25 20:48:00,45.3,34.2,30.10,East,90,2.6,2.6,65,0.00,CLR,,0.00,WeatherDisplay:10.37,2013-04-26 00:48:00,
2013-04-25 20:49:00,45.3,34.6,30.10,East,90,2.3,2.4,66,0.00,CLR,,0.00,WeatherDisplay:10.37,2013-04-26 00:49:00,
2013-04-25 20:50:00,45.1,34.5,30.10,ESE,112,2.9,2.9,66,0.00,CLR,,0.00,WeatherDisplay:10.37,2013-04-26 00:50:00,
2013-04-25 20:51:00,45.1,34.5,30.10,ESE,112,3.5,3.5,66,0.00,CLR,,0.00,WeatherDisplay:10.37,2013-04-26 00:51:00,
2013-04-25 20:53:00,45.0,34.3,30.10,ENE,68,3.5,3.5,66,0.00,CLR,,0.00,WeatherDisplay:10.37,2013-04-26 00:53:00,
2013-04-25 20:54:00,44.8,34.1,30.13,East,90,2.3,2.3,66,0.00,CLR,,0.00,WeatherDisplay:10.37,2013-04-26 00:54:00,
2013-04-25 20:55:00,44.8,34.5,30.13,East,90,2.3,2.3,67,0.00,CLR,,0.00,WeatherDisplay:10.37,2013-04-26 00:55:00,
2013-04-25 20:56:00,44.8,34.5,30.13,East,90,2.3,2.3,67,0.00,CLR,,0.00,WeatherDisplay:10.37,2013-04-26 00:56:00,
2013-04-25 20:58:00,44.8,34.5,30.13,ENE,68,3.5,3.5,67,0.00,CLR,,0.00,WeatherDisplay:10.37,2013-04-26 00:58:00,
2013-04-25 20:59:00,44.6,35.1,30.13,East,90,3.1,3.1,69,0.00,CLR,,0.00,WeatherDisplay:10.37,2013-04-26 00:59:00,
2013-04-25 21:01:00,44.6,35.1,30.13,ENE,68,3.5,3.5,69,0.00,CLR,,0.00,WeatherDisplay:10.37,2013-04-26 01:01:00,
2013-04-25 21:03:00,44.6,34.7,30.13,ESE,112,3.3,0.0,68,0.00,CLR,,0.00,WeatherDisplay:10.37,2013-04-26 01:03:00,
2013-04-25 21:04:00,44.4,34.5,30.13,ESE,112,3.5,3.5,68,0.00,CLR,,0.00,WeatherDisplay:10.37,2013-04-26 01:04:00,
2013-04-25 21:06:00,44.2,34.0,30.13,East,90,2.3,0.0,67,0.00,CLR,,0.00,WeatherDisplay:10.37,2013-04-26 01:06:00,
2013-04-25 21:08:00,44.2,34.7,30.13,ESE,112,2.3,2.3,69,0.00,CLR,,0.00,WeatherDisplay:10.37,2013-04-26 01:08:00,
2013-04-25 21:10:00,44.2,34.7,30.13,ESE,112,2.3,2.3,69,0.00,CLR,,0.00,WeatherDisplay:10.37,2013-04-26 01:10:00,
2013-04-25 21:11:00,44.2,35.1,30.13,ENE,68,0.0,0.0,70,0.00,CLR,,0.00,WeatherDisplay:10.37,2013-04-26 01:11:00,
2013-04-25 21:13:00,44.1,34.9,30.13,East,90,2.3,2.3,70,0.00,CLR,,0.00,WeatherDisplay:10.37,2013-04-26 01:13:00,
2013-04-25 21:15:00,44.1,34.9,30.13,East,90,2.3,2.4,70,0.00,CLR,,0.00,WeatherDisplay:10.37,2013-04-26 01:15:00,
2013-04-25 21:16:00,44.1,34.2,30.13,ENE,68,0.0,0.0,68,0.00,CLR,,0.00,WeatherDisplay:10.37,2013-04-26 01:16:00,
2013-04-25 21:18:00,44.1,34.5,30.13,East,90,2.0,0.0,69,0.00,CLR,,0.00,WeatherDisplay:10.37,2013-04-26 01:18:00,
2013-04-25 21:20:00,43.9,34.4,30.13,ESE,112,3.6,3.6,69,0.00,CLR,,0.00,WeatherDisplay:10.37,2013-04-26 01:20:00,
2013-04-25 21:21:00,43.7,34.2,30.13,ESE,112,3.5,3.5,69,0.00,CLR,,0.00,WeatherDisplay:10.37,2013-04-26 01:21:00,
2013-04-25 21:22:00,43.7,34.2,30.13,ESE,112,1.1,0.0,69,0.00,CLR,,0.00,WeatherDisplay:10.37,2013-04-26 01:22:00,
2013-04-25 21:23:00,43.7,33.8,30.13,ESE,112,0.0,0.0,68,0.00,CLR,,0.00,WeatherDisplay:10.37,2013-04-26 01:23:00,
2013-04-25 21:25:00,43.7,34.2,30.13,ESE,112,0.0,0.0,69,0.00,CLR,,0.00,WeatherDisplay:10.37,2013-04-26 01:25:00,
2013-04-25 21:26:00,43.5,34.0,30.13,ESE,112,0.0,0.0,69,0.00,CLR,,0.00,WeatherDisplay:10.37,2013-04-26 01:26:00,
2013-04-25 21:27:00,43.5,34.0,30.13,ESE,112,0.0,0.0,69,0.00,CLR,,0.00,WeatherDisplay:10.37,2013-04-26 01:27:00,
2013-04-25 21:29:00,43.5,33.7,30.13,ESE,112,3.5,3.5,68,0.00,CLR,,0.00,WeatherDisplay:10.37,2013-04-26 01:29:00,
2013-04-25 21:30:00,43.3,33.5,30.13,ESE,112,2.3,2.3,68,0.00,CLR,,0.00,WeatherDisplay:10.37,2013-04-26 01:30:00,
2013-04-25 21:32:00,43.3,33.8,30.13,ESE,112,3.6,3.6,69,0.00,CLR,,0.00,WeatherDisplay:10.37,2013-04-26 01:32:00,
2013-04-25 21:34:00,43.2,33.7,30.13,ESE,112,3.5,3.5,69,0.00,CLR,,0.00,WeatherDisplay:10.37,2013-04-26 01:34:00,
2013-04-25 21:36:00,43.0,33.1,30.13,ESE,112,0.0,0.0,68,0.00,CLR,,0.00,WeatherDisplay:10.37,2013-04-26 01:36:00,
2013-04-25 21:37:00,43.2,33.3,30.13,ESE,112,0.0,0.0,68,0.00,CLR,,0.00,WeatherDisplay:10.37,2013-04-26 01:37:00,
2013-04-25 21:38:00,43.2,33.3,30.13,ESE,112,0.0,0.0,68,0.00,CLR,,0.00,WeatherDisplay:10.37,2013-04-26 01:38:00,
2013-04-25 21:39:00,43.0,33.1,30.16,ESE,112,2.3,0.0,68,0.00,CLR,,0.00,WeatherDisplay:10.37,2013-04-26 01:39:00,
2013-04-25 21:41:00,43.0,33.1,30.16,ESE,112,0.0,0.0,68,0.00,CLR,,0.00,WeatherDisplay:10.37,2013-04-26 01:41:00,
2013-04-25 21:42:00,43.0,33.1,30.16,ESE,112,0.0,0.0,68,0.00,CLR,,0.00,WeatherDisplay:10.37,2013-04-26 01:42:00,
2013-04-25 21:43:00,43.0,33.1,30.16,ESE,112,0.0,0.0,68,0.00,CLR,,0.00,WeatherDisplay:10.37,2013-04-26 01:43:00,
2013-04-25 21:44:00,43.0,32.8,30.16,ESE,112,0.0,0.0,67,0.00,CLR,,0.00,WeatherDisplay:10.37,2013-04-26 01:44:00,
2013-04-25 21:47:00,43.0,32.4,30.16,ESE,112,0.0,0.0,66,0.00,CLR,,0.00,WeatherDisplay:10.37,2013-04-26 01:47:00,
2013-04-25 21:48:00,43.0,32.4,30.16,ESE,112,0.0,0.0,66,0.00,CLR,,0.00,WeatherDisplay:10.37,2013-04-26 01:48:00,
2013-04-25 21:50:00,43.0,32.8,30.16,SE,135,0.0,0.0,67,0.00,CLR,,0.00,WeatherDisplay:10.37,2013-04-26 01:50:00,
2013-04-25 21:53:00,43.0,33.1,30.16,SE,135,0.0,0.0,68,0.00,CLR,,0.00,WeatherDisplay:10.37,2013-04-26 01:53:00,
2013-04-25 21:55:00,42.8,32.6,30.16,SE,135,0.0,0.0,67,0.00,CLR,,0.00,WeatherDisplay:10.37,2013-04-26 01:55:00,
2013-04-25 21:58:00,42.8,33.3,30.16,SE,135,0.0,0.0,69,0.00,CLR,,0.00,WeatherDisplay:10.37,2013-04-26 01:58:00,
2013-04-25 22:00:00,42.8,33.3,30.16,SE,135,0.0,0.0,69,0.00,CLR,,0.00,WeatherDisplay:10.37,2013-04-26 02:00:00,
2013-04-25 22:03:00,42.8,33.7,30.16,SE,135,0.0,0.0,70,0.00,CLR,,0.00,WeatherDisplay:10.37,2013-04-26 02:03:00,
2013-04-25 22:04:00,42.8,33.3,30.16,SE,135,0.0,0.0,69,0.00,CLR,,0.00,WeatherDisplay:10.37,2013-04-26 02:04:00,
2013-04-25 22:05:00,42.8,33.3,30.16,SE,135,0.0,0.0,69,0.00,CLR,,0.00,WeatherDisplay:10.37,2013-04-26 02:05:00,
2013-04-25 22:08:00,42.8,33.7,30.16,SE,135,0.0,0.0,70,0.00,CLR,,0.00,WeatherDisplay:10.37,2013-04-26 02:08:00,
2013-04-25 22:09:00,42.8,33.7,30.16,SE,135,0.0,0.0,70,0.00,CLR,,0.00,WeatherDisplay:10.37,2013-04-26 02:09:00,
2013-04-25 22:11:00,42.8,34.0,30.16,SE,135,0.0,0.0,71,0.00,CLR,,0.00,WeatherDisplay:10.37,2013-04-26 02:11:00,
2013-04-25 22:13:00,42.6,33.5,30.16,SE,135,0.0,0.0,70,0.00,CLR,,0.00,WeatherDisplay:10.37,2013-04-26 02:13:00,
2013-04-25 22:14:00,42.6,34.2,30.16,ESE,112,0.0,0.0,72,0.00,CLR,,0.00,WeatherDisplay:10.37,2013-04-26 02:14:00,
2013-04-25 22:16:00,42.4,34.0,30.16,ESE,112,0.0,0.0,72,0.00,CLR,,0.00,WeatherDisplay:10.37,2013-04-26 02:16:00,
2013-04-25 22:19:00,42.4,34.0,30.16,ESE,112,0.0,0.0,72,0.00,CLR,,0.00,WeatherDisplay:10.37,2013-04-26 02:19:00,
2013-04-25 22:21:00,42.4,33.7,30.16,ESE,112,0.0,0.0,71,0.00,CLR,,0.00,WeatherDisplay:10.37,2013-04-26 02:21:00,
2013-04-25 22:24:00,42.3,33.2,30.16,ESE,112,0.0,0.0,70,0.00,CLR,,0.00,WeatherDisplay:10.37,2013-04-26 02:24:00,
2013-04-25 22:25:00,42.3,33.9,30.16,ESE,112,0.0,0.0,72,0.00,CLR,,0.00,WeatherDisplay:10.37,2013-04-26 02:25:00,
2013-04-25 22:26:00,42.3,33.5,30.16,ESE,112,0.0,0.0,71,0.00,CLR,,0.00,WeatherDisplay:10.37,2013-04-26 02:26:00,
2013-04-25 22:29:00,42.3,34.6,30.16,ESE,112,0.0,0.0,74,0.00,CLR,,0.00,WeatherDisplay:10.37,2013-04-26 02:29:00,
2013-04-25 22:30:00,42.3,34.6,30.16,ESE,112,0.0,0.0,74,0.00,CLR,,0.00,WeatherDisplay:10.37,2013-04-26 02:30:00,
2013-04-25 22:31:00,42.3,34.6,30.16,ESE,112,0.0,0.0,74,0.00,CLR,,0.00,WeatherDisplay:10.37,2013-04-26 02:31:00,
2013-04-25 22:34:00,42.4,35.1,30.16,East,90,0.0,0.9,75,0.00,CLR,,0.00,WeatherDisplay:10.37,2013-04-26 02:34:00,
2013-04-25 22:35:00,42.4,35.1,30.16,East,90,0.0,0.9,75,0.00,CLR,,0.00,WeatherDisplay:10.37,2013-04-26 02:35:00,
2013-04-25 22:37:00,42.4,35.7,30.16,East,90,0.0,0.9,77,0.00,CLR,,0.00,WeatherDisplay:10.37,2013-04-26 02:37:00,
2013-04-25 22:39:00,42.4,36.1,30.16,East,90,0.0,0.9,78,0.00,CLR,,0.00,WeatherDisplay:10.37,2013-04-26 02:39:00,
2013-04-25 22:40:00,42.4,36.1,30.16,East,90,0.0,0.9,78,0.00,CLR,,0.00,WeatherDisplay:10.37,2013-04-26 02:40:00,
2013-04-25 22:41:00,42.4,36.1,30.16,East,90,0.0,0.9,78,0.00,CLR,,0.00,WeatherDisplay:10.37,2013-04-26 02:41:00,
2013-04-25 22:42:00,42.6,36.9,30.16,East,90,0.0,0.9,80,0.00,CLR,,0.00,WeatherDisplay:10.37,2013-04-26 02:42:00,
2013-04-25 22:44:00,42.6,37.5,30.16,East,90,0.0,0.9,82,0.00,CLR,,0.00,WeatherDisplay:10.37,2013-04-26 02:44:00,
2013-04-25 22:45:00,42.6,37.5,30.16,East,90,0.0,0.9,82,0.00,CLR,,0.00,WeatherDisplay:10.37,2013-04-26 02:45:00,
2013-04-25 22:46:00,42.8,38.0,30.16,East,90,0.0,0.9,83,0.00,CLR,,0.00,WeatherDisplay:10.37,2013-04-26 02:46:00,
2013-04-25 22:47:00,42.8,38.3,30.16,East,90,0.0,0.9,84,0.00,CLR,,0.00,WeatherDisplay:10.37,2013-04-26 02:47:00,
2013-04-25 22:50:00,42.8,38.0,30.16,East,90,0.0,0.9,83,0.00,CLR,,0.00,WeatherDisplay:10.37,2013-04-26 02:50:00,
2013-04-25 22:51:00,42.8,38.0,30.16,East,90,0.0,0.9,83,0.00,CLR,,0.00,WeatherDisplay:10.37,2013-04-26 02:51:00,
2013-04-25 22:52:00,42.8,38.0,30.16,East,90,0.0,0.9,83,0.00,CLR,,0.00,WeatherDisplay:10.37,2013-04-26 02:52:00,
2013-04-25 22:55:00,42.8,38.3,30.16,East,90,0.0,0.9,84,0.00,CLR,,0.00,WeatherDisplay:10.37,2013-04-26 02:55:00,
2013-04-25 22:56:00,42.8,38.3,30.16,East,90,0.0,0.9,84,0.00,CLR,,0.00,WeatherDisplay:10.37,2013-04-26 02:56:00,
2013-04-25 22:57:00,43.0,38.5,30.16,East,90,0.0,0.9,84,0.00,CLR,,0.00,WeatherDisplay:10.37,2013-04-26 02:57:00,
2013-04-25 23:00:00,43.0,38.8,30.16,East,90,0.0,0.9,85,0.00,CLR,,0.00,WeatherDisplay:10.37,2013-04-26 03:00:00,
2013-04-25 23:01:00,43.0,38.8,30.16,East,90,0.0,0.9,85,0.00,CLR,,0.00,WeatherDisplay:10.37,2013-04-26 03:01:00,
2013-04-25 23:03:00,43.2,39.3,30.16,East,90,0.0,0.9,86,0.00,CLR,,0.00,WeatherDisplay:10.37,2013-04-26 03:03:00,
2013-04-25 23:05:00,43.2,39.3,30.16,East,90,0.0,0.9,86,0.00,CLR,,0.00,WeatherDisplay:10.37,2013-04-26 03:05:00,
2013-04-25 23:06:00,43.2,39.3,30.16,East,90,0.0,0.9,86,0.00,CLR,,0.00,WeatherDisplay:10.37,2013-04-26 03:06:00,
2013-04-25 23:07:00,43.2,39.3,30.16,East,90,0.0,0.9,86,0.00,CLR,,0.00,WeatherDisplay:10.37,2013-04-26 03:07:00,
2013-04-25 23:08:00,43.3,39.4,30.16,East,90,0.0,0.9,86,0.00,CLR,,0.00,WeatherDisplay:10.37,2013-04-26 03:08:00,
2013-04-25 23:10:00,43.3,39.4,30.16,East,90,0.0,0.9,86,0.00,CLR,,0.00,WeatherDisplay:10.37,2013-04-26 03:10:00,
2013-04-25 23:11:00,43.3,39.1,30.16,East,90,0.0,0.9,85,0.00,CLR,,0.00,WeatherDisplay:10.37,2013-04-26 03:11:00,
2013-04-25 23:12:00,43.3,39.4,30.16,East,90,0.0,0.9,86,0.00,CLR,,0.00,WeatherDisplay:10.37,2013-04-26 03:12:00,
2013-04-25 23:13:00,43.3,39.4,30.16,East,90,0.0,0.9,86,0.00,CLR,,0.00,WeatherDisplay:10.37,2013-04-26 03:13:00,
2013-04-25 23:15:00,43.3,39.4,30.16,East,90,0.0,0.9,86,0.00,CLR,,0.00,WeatherDisplay:10.37,2013-04-26 03:15:00,
2013-04-25 23:16:00,43.3,39.4,30.16,NW,315,4.6,4.6,86,0.00,CLR,,0.00,WeatherDisplay:10.37,2013-04-26 03:16:00,
2013-04-25 23:17:00,43.3,39.4,30.16,NW,315,4.6,4.6,86,0.00,CLR,,0.00,WeatherDisplay:10.37,2013-04-26 03:17:00,
2013-04-25 23:18:00,43.3,39.4,30.16,NW,315,4.6,4.6,86,0.00,CLR,,0.00,WeatherDisplay:10.37,2013-04-26 03:18:00,
2013-04-25 23:20:00,43.3,39.1,30.16,WNW,292,6.0,6.0,85,0.00,CLR,,0.00,WeatherDisplay:10.37,2013-04-26 03:20:00,
2013-04-25 23:21:00,43.5,39.3,30.16,NW,315,5.8,5.8,85,0.00,CLR,,0.00,WeatherDisplay:10.37,2013-04-26 03:21:00,
2013-04-25 23:22:00,43.5,39.3,30.16,NNW,338,5.8,5.8,85,0.00,CLR,,0.00,WeatherDisplay:10.37,2013-04-26 03:22:00,
2013-04-25 23:23:00,43.5,39.3,30.16,WNW,292,2.3,2.3,85,0.00,CLR,,0.00,WeatherDisplay:10.37,2013-04-26 03:23:00,
2013-04-25 23:24:00,43.5,39.3,30.16,WNW,292,2.3,2.3,85,0.00,CLR,,0.00,WeatherDisplay:10.37,2013-04-26 03:24:00,
2013-04-25 23:26:00,43.5,39.3,30.16,SW,225,1.1,1.4,85,0.00,CLR,,0.00,WeatherDisplay:10.37,2013-04-26 03:26:00,
2013-04-25 23:27:00,43.5,39.3,30.16,NW,315,5.8,5.8,85,0.00,CLR,,0.00,WeatherDisplay:10.37,2013-04-26 03:27:00,
2013-04-25 23:28:00,43.5,39.3,30.16,NW,315,5.8,5.8,85,0.00,CLR,,0.00,WeatherDisplay:10.37,2013-04-26 03:28:00,
2013-04-25 23:29:00,43.5,39.3,30.16,NW,315,1.1,3.6,85,0.00,CLR,,0.00,WeatherDisplay:10.37,2013-04-26 03:29:00,
2013-04-25 23:31:00,43.5,39.0,30.16,West,270,3.6,3.6,84,0.00,CLR,,0.00,WeatherDisplay:10.37,2013-04-26 03:31:00,
2013-04-25 23:32:00,43.5,39.0,30.16,West,270,3.6,3.6,84,0.00,CLR,,0.00,WeatherDisplay:10.37,2013-04-26 03:32:00,
2013-04-25 23:33:00,43.5,39.0,30.16,NW,315,3.5,3.5,84,0.00,CLR,,0.00,WeatherDisplay:10.37,2013-04-26 03:33:00,
2013-04-25 23:34:00,43.5,39.0,30.16,NW,315,3.5,3.5,84,0.00,CLR,,0.00,WeatherDisplay:10.37,2013-04-26 03:34:00,
2013-04-25 23:36:00,43.5,39.0,30.16,East,90,5.9,5.9,84,0.00,CLR,,0.00,WeatherDisplay:10.37,2013-04-26 03:36:00,
2013-04-25 23:37:00,43.5,39.0,30.16,West,270,5.8,5.8,84,0.00,CLR,,0.00,WeatherDisplay:10.37,2013-04-26 03:37:00,
2013-04-25 23:38:00,43.5,38.7,30.16,ESE,112,3.5,3.5,83,0.00,CLR,,0.00,WeatherDisplay:10.37,2013-04-26 03:38:00,
2013-04-25 23:39:00,43.5,38.7,30.16,East,90,3.5,3.5,83,0.00,CLR,,0.00,WeatherDisplay:10.37,2013-04-26 03:39:00,
2013-04-25 23:41:00,43.5,38.7,30.16,ENE,68,0.0,0.0,83,0.00,CLR,,0.00,WeatherDisplay:10.37,2013-04-26 03:41:00,
2013-04-25 23:42:00,43.5,38.7,30.16,NE,45,0.0,0.0,83,0.00,CLR,,0.00,WeatherDisplay:10.37,2013-04-26 03:42:00,
2013-04-25 23:43:00,43.5,38.7,30.16,NNW,338,0.0,0.0,83,0.00,CLR,,0.00,WeatherDisplay:10.37,2013-04-26 03:43:00,
2013-04-25 23:44:00,43.5,38.7,30.16,WNW,292,2.3,2.3,83,0.00,CLR,,0.00,WeatherDisplay:10.37,2013-04-26 03:44:00,
2013-04-25 23:47:00,43.5,38.7,30.16,NW,315,1.1,0.0,83,0.00,CLR,,0.00,WeatherDisplay:10.37,2013-04-26 03:47:00,
2013-04-25 23:48:00,43.3,38.2,30.16,North,0,2.3,2.3,82,0.00,CLR,,0.00,WeatherDisplay:10.37,2013-04-26 03:48:00,
2013-04-25 23:49:00,43.3,38.2,30.16,North,0,2.3,2.3,82,0.00,CLR,,0.00,WeatherDisplay:10.37,2013-04-26 03:49:00,
2013-04-25 23:52:00,43.2,37.7,30.16,NNE,22,3.5,3.5,81,0.00,CLR,,0.00,WeatherDisplay:10.37,2013-04-26 03:52:00,
2013-04-25 23:53:00,43.0,37.5,30.16,ENE,68,1.1,0.0,81,0.00,CLR,,0.00,WeatherDisplay:10.37,2013-04-26 03:53:00,
2013-04-25 23:54:00,43.0,37.5,30.16,ESE,112,2.3,2.3,81,0.00,CLR,,0.00,WeatherDisplay:10.37,2013-04-26 03:54:00,
2013-04-25 23:57:00,43.0,37.2,30.16,North,0,2.3,0.0,80,0.00,CLR,,0.00,WeatherDisplay:10.37,2013-04-26 03:57:00,
2013-04-25 23:58:00,42.8,37.1,30.16,ENE,68,2.3,0.0,80,0.00,CLR,,0.00,WeatherDisplay:10.37,2013-04-26 03:58:00,
2013-04-25 23:59:00,42.8,37.1,30.16,WNW,292,3.5,3.5,80,0.00,CLR,,0.00,WeatherDisplay:10.37,2013-04-26 03:59:00,